[[{"header":{"parameterUnit":"m.s-1","parameterCategory":1,"la1":30.6,"la2":29.2853,"lo1":-89.7004,"lo2":-87.6739,"dy":0.0162,"dx":0.0183,"nx":112,"ny":82,"refTime":"2023-03-13T12:00:00:Z","depth":0,"parameterNumber":2,"parameterNumberName":"U-component_of_WINDS"},"data":[0.0,0.0,0.0,0.0,0.0,0.0,0.0,0.0,0.0,0.0,0.0,0.0,0.0,0.0,0.0,0.0,0.0,0.0,0.0,0.0,0.0,0.0,0.0,0.0,0.0,0.0,0.0,0.0,0.0,0.0,0.0,0.0,0.0,0.0,0.0,0.0,0.0,0.0,0.0,0.0,0.0,0.0,0.0,0.0,0.0,0.0,0.0,0.0,0.0,0.0,0.0,0.0,0.0,0.0,0.0,0.0,0.0,0.0,0.0,0.0,0.0,0.0,0.0,0.0,0.0,0.0,0.0,0.0,0.0,0.0,0.0,0.0,0.0,0.0,0.0,0.0,0.0,0.0,0.0,0.0,0.0,0.0,0.0,0.0,0.0,0.0,0.0,0.0,0.0,0.0,6.3435,6.8282,7.0052,7.0898,7.0898,7.0898,6.9513,6.6282,0.0,0.0,0.0,0.0,0.0,0.0,0.0,0.0,0.0,0.0,0.0,0.0,0.0,0.0,0.0,0.0,0.0,0.0,0.0,0.0,0.0,0.0,0.0,0.0,0.0,0.0,0.0,0.0,0.0,0.0,0.0,0.0,0.0,0.0,0.0,0.0,0.0,0.0,0.0,0.0,0.0,0.0,0.0,0.0,0.0,0.0,0.0,0.0,0.0,0.0,0.0,0.0,0.0,0.0,0.0,0.0,0.0,0.0,0.0,0.0,0.0,0.0,0.0,0.0,0.0,0.0,0.0,0.0,0.0,0.0,0.0,0.0,0.0,0.0,0.0,0.0,0.0,0.0,0.0,0.0,0.0,0.0,0.0,0.0,0.0,0.0,0.0,0.0,0.0,0.0,0.0,0.0,0.0,0.0,0.0,0.0,0.0,0.0,0.0,0.0,0.0,0.0,0.0,0.0,6.6513,7.0129,7.0744,7.0898,7.0898,7.0898,6.9744,6.709,0.0,0.0,0.0,0.0,0.0,0.0,0.0,0.0,0.0,0.0,0.0,0.0,0.0,0.0,0.0,0.0,0.0,0.0,0.0,0.0,0.0,0.0,0.0,0.0,0.0,0.0,0.0,0.0,0.0,0.0,0.0,0.0,0.0,0.0,0.0,0.0,0.0,0.0,0.0,0.0,0.0,0.0,0.0,0.0,0.0,0.0,0.0,0.0,0.0,0.0,0.0,0.0,0.0,0.0,0.0,0.0,0.0,0.0,0.0,0.0,0.0,0.0,0.0,0.0,0.0,0.0,0.0,0.0,0.0,0.0,0.0,0.0,0.0,0.0,0.0,0.0,0.0,0.0,0.0,0.0,0.0,0.0,0.0,0.0,0.0,0.0,0.0,0.0,0.0,0.0,0.0,0.0,0.0,0.0,0.0,0.0,0.0,0.0,0.0,0.0,0.0,0.0,0.0,6.6859,7.0629,7.2168,7.2322,7.2322,7.2322,7.2322,7.1014,6.8013,6.7475,0.0,0.0,0.0,0.0,0.0,0.0,0.0,0.0,0.0,0.0,0.0,0.0,0.0,0.0,0.0,0.0,0.0,0.0,0.0,0.0,0.0,0.0,0.0,0.0,0.0,0.0,0.0,0.0,0.0,0.0,0.0,0.0,0.0,0.0,0.0,0.0,0.0,0.0,0.0,0.0,0.0,0.0,0.0,0.0,0.0,0.0,0.0,0.0,0.0,0.0,0.0,0.0,0.0,0.0,0.0,0.0,0.0,0.0,0.0,0.0,0.0,0.0,0.0,0.0,0.0,0.0,0.0,0.0,0.0,0.0,0.0,0.0,0.0,0.0,0.0,0.0,0.0,0.0,0.0,0.0,0.0,0.0,0.0,0.0,0.0,0.0,0.0,0.0,0.0,0.0,0.0,0.0,0.0,0.0,0.0,0.0,0.0,0.0,0.0,0.0,0.0,0.0,6.9744,7.2629,7.3399,7.3514,7.3514,7.3514,7.3514,7.2052,6.8629,6.8205,0.0,0.0,0.0,0.0,0.0,0.0,0.0,0.0,0.0,0.0,0.0,0.0,0.0,0.0,0.0,0.0,0.0,0.0,0.0,0.0,0.0,0.0,0.0,0.0,0.0,0.0,0.0,0.0,0.0,0.0,0.0,0.0,0.0,0.0,0.0,0.0,0.0,0.0,0.0,0.0,0.0,0.0,0.0,0.0,0.0,0.0,0.0,0.0,0.0,0.0,0.0,0.0,0.0,0.0,0.0,0.0,0.0,0.0,0.0,0.0,0.0,0.0,0.0,0.0,0.0,0.0,0.0,0.0,0.0,0.0,0.0,0.0,0.0,0.0,0.0,0.0,0.0,0.0,0.0,0.0,0.0,0.0,0.0,0.0,0.0,0.0,0.0,0.0,0.0,0.0,0.0,0.0,0.0,0.0,0.0,0.0,0.0,0.0,0.0,0.0,0.0,0.0,6.8052,6.9975,7.3168,7.3514,7.3514,7.3514,7.3514,7.2052,6.8629,6.7628,0.0,0.0,0.0,0.0,0.0,0.0,0.0,0.0,0.0,0.0,0.0,0.0,0.0,0.0,0.0,0.0,0.0,0.0,0.0,0.0,0.0,0.0,0.0,0.0,0.0,0.0,0.0,0.0,0.0,0.0,0.0,0.0,0.0,0.0,0.0,0.0,0.0,0.0,0.0,0.0,0.0,0.0,0.0,0.0,0.0,0.0,0.0,0.0,0.0,0.0,0.0,0.0,0.0,0.0,0.0,0.0,0.0,0.0,0.0,0.0,0.0,0.0,0.0,0.0,0.0,0.0,0.0,0.0,0.0,0.0,0.0,0.0,0.0,0.0,0.0,0.0,0.0,0.0,0.0,0.0,0.0,0.0,0.0,0.0,0.0,0.0,0.0,0.0,0.0,0.0,0.0,0.0,0.0,0.0,0.0,0.0,0.0,0.0,0.0,0.0,0.0,0.0,7.0975,7.363,0.0,7.5053,7.5053,7.5053,7.5053,7.336,6.9451,0.0,0.0,0.0,0.0,0.0,0.0,0.0,0.0,0.0,0.0,0.0,0.0,0.0,0.0,0.0,0.0,0.0,0.0,0.0,0.0,0.0,0.0,0.0,0.0,0.0,0.0,0.0,0.0,0.0,0.0,0.0,0.0,0.0,0.0,0.0,0.0,0.0,0.0,0.0,0.0,0.0,0.0,0.0,0.0,0.0,0.0,0.0,0.0,0.0,0.0,0.0,0.0,0.0,0.0,0.0,0.0,0.0,0.0,0.0,0.0,0.0,0.0,0.0,0.0,0.0,0.0,0.0,0.0,0.0,0.0,0.0,0.0,0.0,0.0,0.0,0.0,0.0,0.0,0.0,0.0,0.0,0.0,0.0,0.0,0.0,0.0,0.0,0.0,0.0,0.0,0.0,0.0,0.0,0.0,0.0,0.0,0.0,0.0,0.0,0.0,0.0,0.0,6.8604,7.2904,7.6062,0.0,7.609,7.6062,7.6062,7.6034,7.4137,6.9592,0.0,0.0,0.0,0.0,0.0,0.0,0.0,0.0,0.0,0.0,0.0,0.0,0.0,0.0,0.0,0.0,0.0,0.0,0.0,0.0,0.0,0.0,0.0,0.0,0.0,0.0,0.0,0.0,0.0,0.0,0.0,0.0,0.0,0.0,0.0,0.0,0.0,0.0,0.0,0.0,0.0,0.0,0.0,0.0,0.0,0.0,0.0,0.0,0.0,0.0,0.0,0.0,0.0,0.0,0.0,0.0,0.0,0.0,0.0,0.0,0.0,0.0,0.0,0.0,0.0,0.0,0.0,0.0,0.0,0.0,0.0,0.0,0.0,0.0,0.0,0.0,0.0,0.0,0.0,0.0,0.0,0.0,0.0,0.0,0.0,0.0,0.0,0.0,0.0,0.0,0.0,0.0,0.0,0.0,0.0,0.0,0.0,0.0,0.0,0.0,0.0,0.0,6.8791,7.3035,7.625,7.6397,7.635,7.6276,7.6198,7.6198,7.4012,0.0,0.0,0.0,0.0,0.0,0.0,0.0,0.0,0.0,0.0,0.0,0.0,0.0,0.0,0.0,0.0,0.0,0.0,0.0,0.0,0.0,0.0,0.0,0.0,0.0,0.0,0.0,0.0,0.0,0.0,0.0,0.0,0.0,0.0,0.0,0.0,0.0,0.0,0.0,0.0,0.0,0.0,0.0,0.0,0.0,0.0,0.0,0.0,0.0,0.0,0.0,0.0,0.0,0.0,0.0,0.0,0.0,0.0,0.0,0.0,0.0,0.0,0.0,0.0,0.0,0.0,0.0,0.0,0.0,0.0,0.0,0.0,0.0,0.0,0.0,0.0,0.0,0.0,0.0,0.0,0.0,0.0,0.0,0.0,0.0,0.0,0.0,0.0,0.0,0.0,0.0,0.0,0.0,0.0,0.0,0.0,0.0,0.0,0.0,0.0,0.0,0.0,0.0,6.8737,7.3133,7.635,7.6397,7.6374,7.6374,7.635,7.635,7.4123,6.8961,0.0,0.0,0.0,0.0,0.0,0.0,0.0,0.0,0.0,0.0,0.0,0.0,0.0,0.0,0.0,0.0,0.0,0.0,0.0,0.0,0.0,0.0,0.0,0.0,0.0,0.0,0.0,0.0,0.0,0.0,0.0,0.0,0.0,0.0,0.0,0.0,0.0,0.0,0.0,0.0,0.0,0.0,0.0,0.0,0.0,0.0,0.0,0.0,0.0,0.0,0.0,0.0,0.0,0.0,0.0,0.0,0.0,0.0,0.0,0.0,0.0,0.0,0.0,0.0,0.0,0.0,0.0,0.0,0.0,0.0,0.0,0.0,0.0,0.0,0.0,0.0,0.0,0.0,0.0,0.0,0.0,0.0,0.0,0.0,0.0,0.0,0.0,0.0,0.0,0.0,0.0,0.0,0.0,0.0,0.0,0.0,0.0,0.0,0.0,0.0,0.0,0.0,6.8806,7.3248,7.6604,7.6996,7.7035,7.7108,7.7456,7.7163,7.5227,7.1063,0.0,0.0,0.0,0.0,0.0,0.0,0.0,0.0,0.0,0.0,0.0,0.0,0.0,0.0,0.0,0.0,0.0,0.0,0.0,0.0,0.0,0.0,0.0,0.0,0.0,0.0,0.0,0.0,0.0,0.0,0.0,0.0,0.0,0.0,0.0,0.0,0.0,0.0,0.0,0.0,0.0,0.0,0.0,0.0,0.0,0.0,0.0,0.0,0.0,0.0,0.0,0.0,0.0,0.0,0.0,0.0,0.0,0.0,0.0,0.0,0.0,0.0,0.0,0.0,0.0,0.0,0.0,0.0,0.0,0.0,0.0,0.0,0.0,0.0,0.0,0.0,0.0,0.0,0.0,0.0,0.0,0.0,0.0,0.0,0.0,0.0,0.0,0.0,0.0,0.0,0.0,0.0,0.0,0.0,0.0,0.0,0.0,0.0,0.0,0.0,0.0,0.0,6.9244,7.3625,7.7176,7.8046,7.8088,7.834,7.9076,7.8455,7.6883,7.4224,0.0,0.0,0.0,0.0,0.0,0.0,0.0,0.0,0.0,0.0,0.0,0.0,0.0,0.0,0.0,0.0,0.0,0.0,0.0,0.0,0.0,0.0,0.0,0.0,0.0,0.0,0.0,0.0,0.0,0.0,0.0,0.0,0.0,0.0,0.0,0.0,0.0,0.0,0.0,0.0,0.0,0.0,0.0,0.0,0.0,0.0,0.0,0.0,0.0,0.0,0.0,0.0,0.0,0.0,0.0,0.0,0.0,0.0,0.0,0.0,6.833,0.0,0.0,0.0,0.0,0.0,0.0,0.0,0.0,0.0,0.0,0.0,0.0,0.0,0.0,0.0,0.0,0.0,0.0,0.0,0.0,0.0,0.0,0.0,0.0,0.0,0.0,0.0,0.0,0.0,0.0,0.0,0.0,0.0,0.0,0.0,0.0,0.0,0.0,0.0,0.0,0.0,7.099,7.5488,7.8805,7.9018,7.9018,7.9077,7.9232,7.9116,7.7893,7.5236,7.4421,0.0,0.0,0.0,0.0,0.0,0.0,0.0,0.0,0.0,0.0,0.0,0.0,0.0,0.0,0.0,0.0,0.0,0.0,0.0,0.0,0.0,0.0,0.0,0.0,0.0,0.0,0.0,0.0,0.0,0.0,0.0,0.0,0.0,0.0,0.0,0.0,0.0,0.0,0.0,0.0,0.0,0.0,0.0,0.0,0.0,0.0,0.0,0.0,0.0,0.0,0.0,0.0,0.0,0.0,0.0,0.0,0.0,0.0,0.0,0.0,6.8837,0.0,0.0,0.0,0.0,0.0,0.0,0.0,0.0,0.0,0.0,0.0,0.0,0.0,0.0,0.0,0.0,0.0,0.0,0.0,0.0,0.0,0.0,0.0,0.0,0.0,0.0,0.0,0.0,0.0,0.0,0.0,0.0,0.0,0.0,0.0,0.0,0.0,0.0,0.0,0.0,7.1552,7.605,7.9445,7.9872,7.9911,8.0105,8.0494,8.0183,7.9367,7.7971,7.6322,0.0,0.0,0.0,0.0,0.0,0.0,0.0,0.0,0.0,0.0,0.0,0.0,0.0,0.0,0.0,0.0,0.0,0.0,0.0,0.0,0.0,0.0,0.0,0.0,0.0,0.0,0.0,0.0,0.0,0.0,0.0,0.0,0.0,0.0,0.0,0.0,0.0,0.0,0.0,0.0,0.0,0.0,0.0,0.0,0.0,0.0,0.0,0.0,0.0,0.0,0.0,0.0,0.0,6.9789,7.0079,7.027,7.1009,7.1048,7.0559,7.1413,7.2134,7.2675,7.1396,0.0,0.0,0.0,0.0,0.0,0.0,0.0,0.0,0.0,0.0,0.0,0.0,0.0,0.0,0.0,0.0,0.0,0.0,0.0,0.0,0.0,0.0,6.9633,7.1725,7.1317,7.0831,7.2013,0.0,0.0,0.0,0.0,0.0,0.0,0.0,0.0,0.0,0.0,0.0,7.1628,7.6068,7.9562,8.03,8.0377,8.0649,8.1387,8.0805,8.0377,8.0377,7.7816,7.6089,0.0,0.0,0.0,0.0,0.0,0.0,0.0,0.0,0.0,0.0,0.0,0.0,0.0,0.0,0.0,0.0,0.0,0.0,0.0,0.0,0.0,0.0,0.0,0.0,0.0,0.0,0.0,0.0,0.0,0.0,0.0,0.0,6.3322,6.5586,0.0,0.0,0.0,0.0,0.0,0.0,0.0,0.0,0.0,0.0,0.0,0.0,0.0,6.7444,6.8237,7.0174,7.1201,7.1356,7.3607,7.4732,7.479,7.5595,7.5859,7.5677,7.3678,0.0,7.3103,7.3607,0.0,0.0,0.0,0.0,0.0,0.0,0.0,0.0,0.0,0.0,0.0,0.0,0.0,0.0,0.0,0.0,0.0,0.0,0.0,0.0,0.0,0.0,7.5564,7.5913,7.415,7.3239,7.6281,7.1978,6.8278,7.0641,6.9962,6.8912,0.0,0.0,0.0,0.0,0.0,0.0,7.1581,7.6104,7.9328,7.9445,7.9484,7.9523,7.9639,7.9523,7.9484,7.9484,7.9756,7.8883,7.663,7.8651,0.0,0.0,0.0,0.0,0.0,0.0,0.0,0.0,0.0,0.0,0.0,0.0,0.0,0.0,0.0,0.0,0.0,0.0,0.0,0.0,0.0,0.0,0.0,0.0,0.0,0.0,0.0,0.0,0.0,6.3477,6.5043,6.6239,6.6373,6.5713,0.0,0.0,0.0,0.0,0.0,0.0,0.0,0.0,0.0,6.7599,6.9014,6.9924,7.0312,7.252,7.3876,7.4457,7.5597,7.6217,7.6394,7.675,7.6965,7.696,7.5819,7.5392,7.5322,7.4116,7.3868,7.4149,0.0,0.0,0.0,0.0,6.928,7.0131,6.9303,7.0659,7.2749,7.2328,0.0,0.0,0.0,0.0,0.0,0.0,0.0,7.2574,7.3547,7.5253,7.6959,7.793,7.729,7.671,7.7719,7.4383,7.1843,7.3876,7.2191,7.0166,6.9162,6.9817,0.0,0.0,0.0,7.3773,7.3773,7.6998,7.929,7.929,7.9756,8.0028,8.0028,8.0494,8.0533,8.0067,8.0377,7.9872,7.8241,7.9698,7.8748,0.0,0.0,0.0,0.0,0.0,0.0,0.0,0.0,0.0,0.0,0.0,0.0,0.0,0.0,0.0,0.0,0.0,0.0,0.0,0.0,0.0,0.0,0.0,0.0,0.0,0.0,0.0,0.0,6.5079,6.6334,6.7076,6.7542,6.7137,0.0,0.0,0.0,0.0,0.0,0.0,6.8549,6.9169,6.9518,6.9537,7.1355,7.2457,7.2672,7.4602,7.5895,7.6653,7.6711,7.686,7.7054,7.7054,7.7219,7.7511,7.7511,7.7628,7.7636,7.5116,7.4445,7.4927,7.44,7.3405,7.2185,7.1626,7.1811,7.222,7.1605,7.3098,7.5171,7.4616,7.4538,7.4538,7.3974,0.0,0.0,0.0,0.0,7.4261,7.5913,7.6845,7.766,7.8942,7.9116,7.8844,7.8417,7.6107,7.4595,7.6183,7.417,7.1797,7.0502,7.1564,0.0,6.915,0.0,7.5482,7.5482,7.7697,7.929,7.929,7.9872,8.0261,8.0261,8.0844,8.096,8.03,8.0494,8.03,7.9639,8.0455,7.9621,7.6788,0.0,0.0,0.0,0.0,0.0,0.0,0.0,0.0,0.0,0.0,0.0,0.0,0.0,0.0,0.0,0.0,0.0,0.0,0.0,0.0,0.0,0.0,0.0,0.0,0.0,0.0,0.0,0.0,0.0,6.8668,7.0308,0.0,0.0,0.0,0.0,6.754,6.8296,6.9518,7.1144,7.126,7.2302,7.4657,7.485,7.5314,7.6127,7.6514,7.6746,7.6808,7.7051,7.7186,7.7186,7.7186,7.7654,7.8437,7.8437,7.8866,7.9452,7.7695,7.6992,7.6874,7.5233,7.4431,7.4054,7.2298,7.3133,7.5074,7.4904,7.6552,7.8742,7.8773,7.7733,7.6012,7.3586,7.3353,0.0,0.0,7.4595,7.6323,7.5546,7.7155,7.9016,7.9093,7.8514,7.8205,7.8981,7.6534,7.4706,7.6358,7.5214,7.3972,7.395,0.0,7.4434,7.1792,7.3734,7.5482,7.5482,7.7697,7.929,7.929,7.9328,7.9367,7.9367,7.9406,7.9406,7.9367,8.0144,8.0572,8.0533,8.1387,8.1349,8.0377,7.8825,0.0,0.0,0.0,0.0,0.0,0.0,0.0,0.0,0.0,0.0,0.0,0.0,0.0,0.0,0.0,0.0,0.0,0.0,0.0,0.0,0.0,0.0,0.0,0.0,0.0,0.0,0.0,0.0,6.8661,6.9962,0.0,6.9846,7.0486,7.0699,7.0079,7.182,7.3154,7.3751,7.4293,7.5028,7.5895,7.5933,7.6088,7.6397,7.7055,7.7483,7.7626,7.8301,7.8679,7.8828,7.8828,7.8984,7.9258,7.9258,7.9414,7.9648,7.9062,7.8828,7.875,7.8086,7.7752,7.7537,7.6798,7.7031,7.765,7.7643,7.8247,7.9021,7.9132,7.8727,7.8047,7.7176,7.7157,7.7487,7.7661,7.8398,7.9233,7.9386,8.0101,8.0761,8.0761,8.0549,8.0299,8.0107,7.9117,7.8282,7.8357,7.657,7.4999,7.5016,7.6648,7.7075,7.4511,7.6298,7.793,7.793,7.8746,7.929,7.929,7.9795,8.0144,8.0144,8.0649,8.0727,8.0183,8.0416,8.0339,7.9795,8.061,8.0921,8.061,8.0553,7.869,0.0,0.0,0.0,0.0,0.0,0.0,0.0,0.0,0.0,0.0,0.0,0.0,0.0,0.0,0.0,0.0,0.0,0.0,0.0,0.0,0.0,0.0,0.0,0.0,0.0,0.0,6.7521,6.9537,7.0758,7.1435,7.1455,7.2189,7.265,7.265,7.4447,7.5546,7.5546,7.6088,7.6514,7.6823,7.6823,7.6978,7.7248,7.7867,7.8297,7.8575,7.9149,7.9538,7.9687,7.9687,7.9375,7.8906,7.9765,7.9805,7.9375,8.0234,8.0586,8.0508,7.9883,7.9587,7.9481,7.9609,7.9569,7.9492,7.9772,7.9873,7.9958,8.0045,8.0105,8.0125,8.0164,8.0182,8.0221,8.0417,8.0689,8.0993,8.1165,8.1414,8.1624,8.1624,8.1414,8.1088,8.0549,7.9582,7.8865,7.9175,7.793,7.6493,7.5638,7.6648,7.692,7.49,7.5793,7.692,7.7503,7.859,7.929,7.9271,8.0825,8.1873,8.1873,8.133,8.1136,8.1426,8.0377,7.9872,8.0144,7.9872,7.96,7.929,7.9018,7.7699,7.5353,0.0,0.0,0.0,0.0,0.0,0.0,0.0,0.0,0.0,0.0,0.0,0.0,0.0,0.0,0.0,0.0,0.0,0.0,0.0,0.0,0.0,0.0,0.0,6.394,6.7503,7.0447,7.1475,7.2982,7.3944,7.3949,7.4679,7.516,7.516,7.5933,7.6436,7.6436,7.6359,7.6707,7.7558,7.7558,7.7983,7.8834,7.9105,7.9323,7.9439,7.9557,7.9648,7.9765,7.9765,7.8906,7.75,7.9961,8.0117,7.8828,8.1289,8.2304,8.2148,8.0429,7.9754,7.9763,8.0396,8.0575,8.0536,8.1155,8.1553,8.1779,8.1801,8.1949,8.2087,8.2104,8.1979,8.173,8.0886,8.1116,8.1407,8.0555,8.0933,8.1504,8.1504,8.0895,8.0361,8.0322,7.7853,7.6342,7.8826,7.9369,7.8629,7.6104,7.5016,7.42,7.3346,7.253,0.0,7.4317,7.7425,7.9427,7.9369,8.2241,8.4221,8.4298,8.1193,8.0359,8.298,8.0028,7.9328,8.1815,7.9523,7.7736,7.6881,7.4356,7.4706,7.8008,0.0,0.0,0.0,0.0,0.0,0.0,0.0,0.0,0.0,0.0,0.0,0.0,0.0,0.0,0.0,0.0,0.0,0.0,0.0,0.0,0.0,0.0,6.9224,6.9265,6.9709,7.081,7.2999,7.4176,7.4773,7.4796,7.5546,7.6049,7.6049,7.6862,7.7326,7.7326,7.5585,7.4695,7.4928,7.4928,7.5044,7.5314,7.8448,8.0135,8.029,8.1038,8.1466,8.1601,8.1601,8.1328,8.0937,8.164,8.1679,8.1328,8.1992,8.2304,8.2265,8.1758,8.1514,8.1429,8.16,8.1581,8.1233,7.9597,8.028,8.1871,8.1926,8.1944,8.1959,8.1898,8.1892,8.1785,8.1375,8.1445,8.1606,8.1257,8.131,8.1504,8.1504,8.131,8.1204,8.1298,8.0605,8.0376,8.1738,8.2048,8.1465,7.9523,8.0028,8.0572,8.0339,8.0649,8.1019,8.1446,8.2339,8.2901,8.2837,8.2065,8.2259,8.4078,8.1716,8.1232,8.3814,8.3077,8.2631,8.2747,8.2087,8.131,8.0494,7.7932,7.7021,0.0,0.0,0.0,0.0,0.0,0.0,0.0,0.0,0.0,0.0,0.0,0.0,0.0,0.0,0.0,0.0,0.0,0.0,0.0,0.0,0.0,0.0,6.9804,7.2242,7.3425,7.2745,7.2839,7.4734,7.5353,7.5624,7.5624,7.6436,7.6939,7.6939,7.7751,7.8254,7.8254,7.6823,7.5701,7.4966,7.6049,7.6281,7.5608,7.9183,8.1078,8.1257,8.1813,8.2154,8.2304,8.2304,8.1719,8.0781,8.1836,8.1679,8.0781,8.1875,8.2304,8.2304,0.0,0.0,0.0,0.0,8.202,8.1679,8.0184,8.07,8.1978,8.2029,8.2052,8.2078,8.2023,8.1259,8.028,7.9685,7.9028,7.8617,7.9221,7.9647,8.0266,8.1697,8.2045,8.2186,8.2607,8.1856,8.1591,8.325,8.2708,0.0,8.2126,8.1796,8.1271,8.0514,8.0534,8.0747,8.1036,8.2316,8.3186,8.3119,8.3103,8.3668,8.5095,8.2599,0.0,0.0,0.0,8.2494,8.2087,8.1698,0.0,0.0,0.0,7.6923,7.7932,7.6943,0.0,0.0,7.6439,7.5333,0.0,0.0,0.0,0.0,0.0,0.0,0.0,0.0,0.0,0.0,0.0,0.0,0.0,0.0,0.0,0.0,7.2014,7.3911,7.6305,7.5933,7.5662,7.632,7.6475,7.6552,7.6552,7.7326,7.7829,7.7829,7.8641,7.9144,7.9144,0.0,0.0,0.0,0.0,7.9269,7.7788,8.0546,8.1968,8.2084,8.2127,8.2192,8.2304,8.2304,8.1054,7.9062,8.1328,8.1015,7.9101,8.1367,8.2304,8.2304,8.2304,8.2304,8.2265,8.1836,8.1808,8.1917,8.1605,0.0,0.0,8.2095,8.2194,8.2304,8.2265,8.0602,7.8563,7.7771,7.6311,7.5368,7.6924,7.7867,7.9221,8.2238,8.2935,8.3167,8.3902,8.2327,8.1445,8.3901,8.2587,8.1794,8.4182,8.2048,7.9465,7.7855,7.7099,7.6963,7.7638,8.0467,8.2383,8.2312,8.4829,0.0,8.6984,8.3822,8.3041,8.5713,8.2862,8.1097,8.1193,8.0339,7.8823,7.6531,7.5754,7.6415,7.859,7.859,7.9717,8.1815,7.7855,7.7253,0.0,0.0,0.0,0.0,0.0,0.0,0.0,0.0,0.0,0.0,0.0,0.0,0.0,0.0,0.0,7.3308,7.4861,7.6171,7.6698,7.7195,7.7272,7.663,7.7094,7.7481,7.7597,7.8293,7.8757,7.8757,7.9531,7.9956,7.9956,7.8022,7.6808,7.6575,7.704,7.7215,7.7026,8.0376,8.2084,8.2109,8.2218,0.0,8.2304,8.2304,8.2031,8.1601,8.2109,8.2031,8.1601,8.2109,8.2304,8.2304,8.2304,8.2304,8.2031,7.9961,8.0467,8.1946,7.9876,8.0531,8.2276,8.2276,8.2295,8.2265,8.2187,8.179,0.0,8.187,8.1717,8.1624,8.253,8.2907,8.3153,8.3708,8.3863,8.3889,8.4055,8.3706,8.3754,8.5025,8.487,8.4932,8.6134,8.5247,8.4259,8.3846,8.4233,8.4615,8.4723,8.5962,8.6765,8.6713,8.6043,8.6494,8.8532,8.5578,8.4761,8.7452,8.5794,8.4709,8.4728,8.3874,8.3174,8.2708,8.2514,8.232,8.2126,8.2126,8.2048,8.1892,8.1019,8.0883,0.0,0.0,0.0,0.0,0.0,0.0,0.0,0.0,0.0,0.0,0.0,7.1492,0.0,0.0,7.3195,7.4129,7.5354,7.6466,7.7418,7.8263,7.8379,7.745,7.8049,7.8593,7.8626,7.9337,7.9787,7.9685,8.0498,8.0962,8.0962,7.9724,7.8525,7.7379,7.8641,7.8783,7.7555,8.0624,8.2182,8.2182,8.2285,8.2304,8.2304,8.2304,8.2304,8.2304,8.2773,8.2969,8.2969,8.3437,8.3594,8.3594,8.3594,8.3086,8.2148,8.0859,8.1211,8.2187,8.1328,8.1875,8.3008,8.3476,8.3594,8.3594,8.3515,8.2578,8.1601,8.1959,8.1117,8.0467,8.2092,8.2492,8.2907,8.443,8.4792,8.4895,8.5268,8.5346,8.5642,8.6544,8.6761,8.7033,8.7885,8.7677,8.725,8.68,8.7459,8.7977,8.7939,8.8326,8.8597,8.8544,8.7797,8.7797,8.9085,8.7293,8.6708,8.8057,8.7019,8.636,8.636,8.5505,8.5039,8.5039,8.4612,8.4185,8.3757,8.3757,8.333,8.2514,8.2514,8.2262,0.0,0.0,0.0,0.0,0.0,0.0,0.0,0.0,7.2326,7.1979,7.2287,7.2675,7.2793,7.2912,7.3483,7.495,7.5833,7.6843,7.8357,7.9243,7.9438,7.8757,7.9243,7.9636,7.968,8.0394,8.0816,8.07,8.132,8.1736,8.1736,8.1755,8.0865,7.894,8.0976,8.1126,7.9104,8.1212,8.2383,8.2539,8.2539,8.2656,8.2812,8.2812,8.2812,8.2851,8.3554,8.3867,8.3906,8.4609,8.4883,8.4883,8.4883,8.4023,8.2812,8.2812,8.2812,8.289,8.3594,8.3867,8.3984,8.4687,8.4883,8.4883,8.4883,8.3437,8.1797,8.1914,8.039,7.9295,8.1421,8.1948,8.2631,8.5374,8.6015,8.6184,8.6958,8.7151,8.7371,8.812,8.8275,8.8507,8.9127,8.9398,8.9243,8.8352,8.8778,8.9178,8.9201,8.9317,8.9433,8.9433,8.9588,8.9627,8.9433,8.8907,8.8538,8.8429,8.7834,8.7409,8.7254,8.6593,8.6127,8.5972,8.5272,8.4806,8.4651,8.4651,8.4185,8.333,8.333,8.2825,6.7501,6.4947,6.4403,6.814,6.9711,7.0293,0.0,0.0,7.5464,7.3136,7.4567,7.6256,7.6394,7.7047,7.7676,7.7981,7.8706,7.9294,7.9522,8.0267,8.0776,8.0678,8.0543,8.0514,8.0609,8.1334,8.1753,8.1753,8.1833,8.189,8.189,8.189,8.1809,8.1658,8.1929,8.2025,8.1868,8.2147,8.2695,8.3437,8.3437,8.3867,8.4609,8.4609,8.4609,8.4609,8.4726,8.4765,8.4765,8.4844,8.4883,8.4883,8.4883,8.4765,8.4609,8.4609,8.4609,8.4609,8.4726,8.4765,8.4765,8.4883,8.4883,8.4883,8.4883,8.4687,8.4609,8.539,8.539,8.5351,8.6249,8.6479,8.6733,8.7728,8.7912,8.8041,8.8919,8.9112,8.9112,8.9228,8.9345,8.9422,8.9356,9.0118,9.0312,8.9228,8.9151,8.9201,8.9201,8.982,9.0284,9.0284,9.0942,9.1097,9.0323,9.0301,8.9988,8.9213,8.921,8.8885,8.8186,8.8069,8.7642,8.6865,8.6749,8.6321,8.5544,8.5544,8.5117,8.4262,8.4262,8.3408,6.8893,6.8393,6.8916,0.0,7.2805,7.3795,7.3828,7.5282,7.6366,7.5453,7.6534,7.771,7.7852,7.7765,7.8004,0.0,7.9101,7.9336,8.0312,8.1201,8.1747,8.1763,8.0758,8.0098,8.0156,8.1355,8.1686,8.0587,8.1429,8.2022,8.1993,8.2023,8.2098,8.2201,8.2201,8.2475,8.3047,8.3047,8.3476,8.4375,8.4375,8.4531,8.4883,8.4883,8.5195,8.5664,8.5664,8.5937,8.6406,8.6406,8.6406,8.6406,8.6406,8.6406,8.6289,8.5273,8.4883,8.4961,8.5469,8.5664,8.5742,8.625,8.6406,8.6406,8.6406,8.6406,8.6601,8.7422,8.7656,8.7851,8.8633,8.8828,8.8905,8.9115,8.9134,8.9182,8.9435,8.9538,8.9656,9.0149,9.0324,9.0499,9.0888,9.1331,9.1463,9.0965,9.0802,9.0749,9.0671,9.0942,9.1174,9.1174,9.1484,9.1589,9.1229,9.0779,9.0404,9.0066,8.9693,8.931,8.896,8.8981,8.8846,8.8458,8.7992,8.7564,8.7215,8.671,8.601,8.5156,8.5156,8.4495,6.98,7.038,0.0,7.3396,7.4695,7.5686,7.6769,7.704,7.7195,7.762,7.8224,7.8702,7.8821,7.8515,7.8633,7.9844,7.9765,7.9961,8.1172,8.1914,8.2109,8.164,8.0469,7.9336,7.8398,8.0273,8.1211,8.0351,8.1445,8.2149,8.2141,8.2162,8.2299,8.2656,8.2656,8.3086,8.3945,8.3945,8.4414,8.5273,8.5273,8.539,8.5625,8.5625,8.6094,8.6875,8.6875,8.7383,8.8203,8.8203,8.8203,8.8203,8.8203,8.8203,8.8047,8.6758,8.6133,8.6054,8.6679,8.7031,8.7344,8.7969,8.8203,8.8203,8.8203,8.8203,8.832,8.8906,8.9062,8.9219,8.9844,9.0,9.0039,9.0195,9.0195,9.022,9.0336,9.0361,9.0572,9.1199,9.1327,9.1535,9.2071,9.2384,9.2586,9.2464,9.261,9.2489,9.187,9.1986,9.2218,9.2451,9.2412,9.2324,9.2146,9.1566,9.1153,9.0933,9.04,8.9981,8.9748,8.9814,8.9719,8.9486,8.8924,8.8613,8.8613,8.7992,8.7254,8.6438,8.6438,8.5933,0.0,0.0,6.7596,7.2731,7.3435,7.379,7.7295,7.8185,7.8495,7.937,7.9595,7.9648,7.9648,8.0312,8.0898,8.0937,8.164,8.2187,8.2265,8.2265,8.1679,7.9961,7.9726,7.8398,0.0,7.7812,8.0469,8.2109,8.2265,8.2304,8.2304,8.2304,8.2695,8.3515,8.3554,8.3984,8.4844,8.4844,8.5312,8.6172,8.6172,8.6601,8.7422,8.7422,8.7851,8.8633,8.8633,8.9101,8.9922,8.9922,8.9922,8.9922,8.9922,8.9922,8.9922,8.9844,8.9297,8.8594,8.8594,8.9179,8.9883,8.9922,8.9922,8.9922,8.9922,8.9922,8.9922,8.9961,8.9961,8.9961,9.0,9.0,9.0195,9.1054,9.1172,9.1289,9.2147,9.2308,9.2324,9.2324,9.2471,9.25,9.2421,9.3188,9.371,9.3399,9.4186,9.4171,9.2296,9.2721,9.3456,9.4336,9.423,9.3804,9.3031,9.301,9.2677,9.1825,9.1824,9.1461,9.0608,9.064,9.0275,8.9421,8.9447,8.9468,8.9468,8.9429,8.9002,8.8225,8.8225,8.7759,0.0,0.0,7.0976,7.4021,7.5437,7.6645,7.865,7.9114,7.9251,7.9598,7.9278,7.8711,7.8164,7.8281,7.8672,7.9258,7.9101,7.9726,8.1992,8.0351,7.9531,8.1211,7.9414,0.0,0.0,0.0,0.0,7.8945,8.1015,8.2539,8.3125,8.3164,8.3554,8.4453,8.4453,8.4883,8.5742,8.5742,8.6211,8.707,8.7617,8.8008,8.832,8.8906,8.9297,8.957,8.957,8.9726,9.0,9.0,9.0,9.0,9.0,9.0,9.0,9.0,9.0195,9.0351,8.9765,8.9765,9.0,9.0,9.0,9.0,9.0,9.0,9.0117,9.0703,9.0859,9.1015,9.1562,9.1719,9.1797,9.2109,9.2148,9.2187,9.2461,9.2512,9.2715,9.33,9.3415,9.3633,9.4179,9.4529,9.4739,9.4604,9.4706,9.4523,9.3901,9.4057,9.4285,9.4597,9.4501,9.4307,9.4037,9.391,9.3678,9.3407,9.2948,9.2548,9.2277,9.1772,9.1393,9.1129,9.0569,9.0319,9.0361,8.9779,8.9351,8.9118,8.9118,8.8924,0.0,7.0979,7.3884,7.6083,7.7524,7.8712,7.9843,8.01,8.0195,8.0542,8.0234,7.9492,7.832,7.8086,7.8281,7.8828,7.8476,7.9062,8.1914,8.039,7.9609,8.1172,7.9414,7.8711,0.0,0.0,0.0,7.7773,7.9961,8.1601,8.2187,8.25,8.3515,8.5312,8.5351,8.5781,8.664,8.6953,8.7539,8.8398,8.8906,8.914,8.9179,8.9726,8.9687,8.914,9.0078,9.0117,8.9609,9.0547,9.0937,9.0937,9.0937,9.0937,9.0937,9.0937,9.1289,9.164,9.0781,9.0664,9.0937,9.0937,9.0937,9.0937,9.0937,9.0937,9.1054,9.1601,9.1758,9.1875,9.2461,9.2617,9.2617,9.2617,9.2851,9.3047,9.3047,9.332,9.3672,9.4258,9.4375,9.4531,9.5117,9.5441,9.5769,9.6054,9.591,9.5651,9.5378,9.5261,9.5366,9.5668,9.5567,9.5377,9.5042,9.4926,9.4694,9.4385,9.3939,9.3502,9.3153,9.2638,9.2251,9.1912,9.1416,9.119,9.1234,9.0711,9.0284,8.9973,8.9973,8.9818,7.2238,7.4424,7.5992,7.8619,7.9467,7.9893,8.0844,8.1054,8.125,8.1953,8.2031,8.1445,0.0,0.0,7.9297,7.9492,7.9453,8.0078,8.1914,8.2109,8.1445,0.0,0.0,0.0,0.0,0.0,0.0,7.875,0.0,8.0,8.0039,8.082,8.2812,8.6172,8.6289,8.6679,8.7539,8.8359,8.9179,9.0,9.0039,9.0078,9.0078,9.0117,8.9258,8.789,9.0312,9.0429,8.9101,9.1562,9.2617,9.2617,9.2617,9.2617,9.2617,9.2617,9.2617,9.2539,9.1719,9.1953,9.2617,9.2617,9.2617,9.2617,9.2617,9.2617,9.2617,9.2617,9.2617,9.2656,9.2656,9.2695,9.2734,9.2734,9.3359,9.3984,9.3984,9.4609,9.5195,9.5273,9.5312,9.5312,9.5312,9.6015,9.6836,9.7578,9.7695,9.7422,9.664,9.6406,9.6601,9.7422,9.7386,9.6991,9.6151,9.6067,9.569,9.4867,9.479,9.4326,9.3385,9.3358,9.2893,9.1902,9.2029,9.206,9.2022,9.2088,9.1682,9.0866,9.0866,9.04,7.2649,7.5401,7.8387,7.9835,8.0306,8.0694,8.1734,8.1953,8.1484,7.9805,7.8437,7.6797,0.0,0.0,0.0,7.6445,7.6328,0.0,7.9922,7.9297,0.0,7.9609,0.0,8.0312,8.1836,8.2578,0.0,0.0,8.2344,8.3867,8.4492,8.4765,8.5586,8.7109,8.7187,8.7578,8.8398,8.9258,8.9765,9.0,9.0664,9.0976,9.0976,9.164,9.1719,9.1328,9.1992,9.2031,9.164,9.2344,9.2617,9.2617,9.2617,9.2617,9.2617,9.2617,9.3008,9.3554,9.332,9.2969,9.2617,9.2617,9.2617,9.2617,9.2617,9.2617,9.2617,9.2617,9.3086,9.3554,9.3554,9.4062,9.4531,9.4531,9.4726,9.4883,9.4883,9.5039,9.539,9.6054,9.664,9.707,9.707,9.7265,9.7461,9.7656,9.7695,9.7617,9.7422,9.7344,9.7383,9.7617,9.7533,9.7359,9.7128,9.7043,9.6856,9.6662,9.6039,9.5572,9.53,9.469,9.3939,9.3087,9.2998,9.2677,9.2166,9.2066,9.195,9.176,9.176,9.1643,7.571,7.7869,7.9941,8.0926,8.1291,8.1286,8.0733,8.0625,7.9883,7.7305,7.6015,7.4648,7.2422,7.1914,0.0,0.0,0.0,0.0,7.9336,7.8906,7.8633,0.0,8.0039,0.0,8.3398,8.4297,8.4336,0.0,8.3594,8.3984,8.4453,8.4844,8.5976,8.7969,8.8047,8.8594,8.9844,9.0312,9.0742,9.1133,9.164,9.1875,9.1875,9.2383,9.1953,9.0937,9.2109,9.2187,9.1562,9.2695,9.3398,9.375,9.375,9.375,9.375,9.375,9.4062,9.4453,9.4453,9.414,9.375,9.375,9.375,9.375,9.375,9.375,9.375,9.375,9.4101,9.4453,9.4453,9.4844,9.5195,9.5195,9.5508,9.5781,9.5781,9.6054,9.6445,9.6914,9.7383,9.7695,9.7695,9.7695,9.7695,9.7695,9.7695,9.7695,9.7695,9.7695,9.7695,9.7695,9.7617,9.7578,9.7578,9.7511,9.7464,9.7464,9.7034,9.6566,9.6097,9.5628,9.4929,9.403,9.3991,9.3519,9.2688,9.2643,9.2455,9.2066,9.2088,9.211,7.952,8.0577,8.108,8.1801,8.2178,8.1719,7.9492,7.875,7.7773,7.5156,7.4336,7.3672,7.2265,7.2617,7.3789,7.5742,0.0,7.7617,7.8867,7.9414,7.9609,7.9375,8.0312,8.1719,8.3594,8.5039,8.6015,8.6367,8.4258,8.3008,8.3008,8.3828,8.5703,8.8789,8.8984,8.9765,9.1289,9.1406,9.1836,9.2617,9.2617,9.2617,9.2617,9.2734,9.1523,8.9531,9.1914,9.2109,9.0859,9.3125,9.4531,9.5195,9.5195,9.5195,9.5195,9.5195,9.5273,9.5351,9.5351,9.5429,9.5508,9.5273,9.5195,9.5195,9.5195,9.5195,9.5195,9.5195,9.5273,9.5351,9.5351,9.5469,9.5547,9.5547,9.6094,9.664,9.664,9.7226,9.7695,9.7695,9.7695,9.7695,9.7695,9.7695,9.7695,9.7695,9.7695,9.7695,9.7695,9.7695,9.7695,9.7695,9.7695,9.7695,9.7695,9.7695,9.7695,9.7695,9.7695,9.7304,9.6445,9.6406,9.5923,9.4964,9.4952,9.4512,9.3502,9.3481,9.3037,9.22,9.2105,9.211,7.9633,8.0722,8.1878,8.2033,8.2208,8.2187,8.1758,8.0,0.0,0.0,7.289,7.1484,7.1914,7.2109,7.3281,7.6445,7.7109,7.6797,7.5664,7.793,7.918,0.0,7.9648,0.0,0.0,8.4297,0.0,0.0,8.6836,8.6601,8.6601,8.7383,8.8437,8.9726,9.0469,9.0976,9.1289,9.1992,9.2461,9.2617,9.2617,9.2617,9.2617,9.3359,9.3437,9.3047,9.4258,9.457,9.4336,9.4804,9.5078,9.5195,9.5195,9.5195,9.5195,9.5195,9.5664,9.6289,9.6289,9.6719,9.7031,9.5664,9.5195,9.5195,9.5195,9.5195,9.5195,9.5195,9.5703,9.6289,9.6289,9.6758,9.7265,9.7265,9.7383,9.75,9.75,9.7617,9.7695,9.7695,9.7695,9.7695,9.7695,9.7695,9.7695,9.7695,9.7695,9.7695,9.7695,9.7695,9.7695,9.7695,9.7695,9.7695,9.7695,9.7695,9.7695,9.7695,9.7695,9.7617,9.7461,9.7422,9.703,9.6205,9.6049,9.5536,9.4699,9.3785,9.3284,9.3236,9.2416,9.2066,7.9959,8.0894,8.2194,8.2194,8.226,8.1601,7.8906,0.0,0.0,7.1406,6.9609,6.8867,6.9258,6.9726,0.0,7.5195,7.6211,7.668,7.7187,7.8672,0.0,7.9219,8.0664,8.2344,0.0,8.4258,8.4804,8.6054,8.6562,8.7187,8.8086,8.9336,9.0234,9.0664,9.1523,9.1992,9.1992,9.2383,9.2617,9.2617,9.3047,9.3281,9.332,9.4179,9.457,9.4609,9.5039,9.4687,9.3945,9.5312,9.5351,9.4648,9.5976,9.6484,9.6484,9.6484,9.6758,9.7109,9.7109,9.7383,9.7578,9.6758,9.6484,9.6484,9.6484,9.6484,9.6484,9.6484,9.6797,9.7109,9.7109,9.7422,9.7695,9.7695,9.7695,9.7695,9.7695,9.7695,9.7695,9.7695,9.7695,9.7695,9.7695,9.7695,9.7695,9.7695,9.7695,9.7851,9.832,9.8398,9.8203,9.7734,9.7695,9.7695,9.7695,9.7695,9.7695,9.7695,9.7695,9.7695,9.7695,9.7695,9.7539,9.7148,9.7031,9.6523,9.5625,9.5041,9.4513,9.402,9.3076,9.2658,8.0547,8.125,8.2304,8.2304,8.2304,8.1094,7.6484,7.5,0.0,6.8672,6.7265,6.707,6.7617,6.8281,7.0078,0.0,7.5156,7.625,7.8789,7.9336,7.9844,0.0,8.1914,0.0,8.4062,8.4609,0.0,8.5664,8.6679,8.7851,8.9179,9.0547,9.1406,9.1562,9.2226,9.2617,9.2617,9.2773,9.289,9.289,9.375,9.4179,9.4219,9.5078,9.5469,9.5508,9.5664,9.4648,9.3086,9.5664,9.5625,9.414,9.6719,9.7695,9.7695,9.7695,9.7695,9.7695,9.7695,9.7695,9.7695,9.7695,9.7695,9.7695,9.7695,9.7695,9.7695,9.7695,9.7695,9.7695,9.7695,9.7695,9.7695,9.7695,9.7695,9.7695,9.7695,9.7695,9.7695,9.7695,9.7695,9.7695,9.7695,9.7695,9.7773,9.7969,9.7969,9.8281,9.9179,9.9297,9.9023,9.832,9.8086,9.789,9.7734,9.7695,9.7695,9.7695,9.7695,9.7695,9.7695,9.7695,9.7695,9.7695,9.7695,9.7304,9.6523,9.6262,9.5725,9.4955,9.3955,9.3555,8.1679,8.2187,8.2304,8.2304,8.2304,8.1562,7.8789,0.0,7.3789,7.0937,6.8515,6.7617,6.9922,7.043,0.0,0.0,7.4531,7.4453,7.707,7.8125,7.9219,8.082,0.0,0.0,8.5781,8.5312,8.5859,8.8164,8.9883,9.0898,9.1054,9.1211,9.164,9.2461,9.2578,9.2617,9.2617,9.3398,9.3789,9.3789,9.4648,9.5078,9.5117,9.5976,9.6367,9.6406,9.7148,9.6054,9.3984,9.6523,9.6133,9.414,9.6719,9.7695,9.7695,9.7695,9.7695,9.7695,9.7695,9.7695,9.7695,9.7695,9.7695,9.7695,9.7695,9.7695,9.7695,9.7695,9.7695,9.7695,9.7695,9.7695,9.7695,9.7695,9.7695,9.7695,9.7695,9.7695,9.7695,9.7695,9.7695,9.7695,9.7695,9.7695,9.7969,9.875,9.8867,9.9219,10.0117,10.0195,10.0117,10.0117,9.9336,9.8554,9.7773,9.7695,9.7695,9.7695,9.7695,9.7695,9.7695,9.7695,9.7695,9.7695,9.7695,9.7656,9.7578,9.6639,9.6157,9.6125,9.5004,9.448,7.8555,8.0312,8.2304,8.2304,8.2304,8.1211,7.7109,0.0,7.3437,6.9258,6.7617,6.7226,6.8242,6.8398,6.9375,7.2305,7.2187,7.3359,7.8047,7.8984,8.0429,8.375,8.4726,0.0,0.0,0.0,8.6523,8.8554,8.8906,8.9922,9.1953,9.207,9.2226,9.2578,9.2617,9.2851,9.3398,9.3711,9.414,9.4687,9.5586,9.5976,9.6015,9.6836,9.7226,9.7226,9.7578,9.5351,9.1875,9.6015,9.5273,9.1953,9.6094,9.7695,9.7695,9.7695,9.7695,9.7695,9.7695,9.7695,9.7695,9.7695,9.7695,9.7695,9.7695,9.7695,9.7695,9.7695,9.7695,9.7695,9.7695,9.7695,9.7695,9.7695,9.7695,9.7695,9.7695,9.7695,9.7695,9.7695,9.7695,9.7851,9.8398,9.8476,9.8789,9.9648,9.9765,10.0117,10.1015,10.1094,10.1094,10.1094,10.0312,9.9648,9.9297,9.8789,9.8476,9.8476,9.8008,9.7695,9.7695,9.7695,9.7695,9.7695,9.7695,9.7695,9.7695,9.7226,9.7018,9.6991,9.5942,9.5499,7.6797,7.9414,8.2304,8.2304,8.1719,8.0039,7.5625,7.3984,7.2187,6.7812,6.6914,6.6914,6.6914,6.6914,6.7734,7.0273,7.0937,7.2851,7.7851,7.9023,8.0742,8.4609,0.0,8.5508,0.0,8.6679,8.7929,8.9375,8.9179,9.0078,9.2461,9.2617,9.2617,9.2617,9.2851,9.3281,9.3906,9.4414,9.4961,9.5586,9.6445,9.6445,9.5781,9.7109,9.7304,9.6601,9.7383,9.5195,9.1484,9.5898,9.5117,9.1601,9.5976,9.7695,9.7695,9.7695,9.7695,9.7695,9.7695,9.7695,9.7695,9.7695,9.7695,9.7695,9.7695,9.7695,9.7695,9.7695,9.7695,9.7695,9.7695,9.7695,9.7695,9.7695,9.7695,9.7695,9.7695,9.7695,9.7773,9.8047,9.8086,9.8359,9.9219,9.9375,9.9687,10.0586,10.0703,10.1015,10.1914,10.1992,10.1992,10.1992,10.1406,10.0898,10.0312,9.9726,9.9258,9.9023,9.8437,9.7969,9.7695,9.7695,9.7695,9.7695,9.7695,9.7695,9.7695,9.7617,9.7563,9.7544,9.6792,9.6453,7.7773,8.0351,8.2304,8.2304,8.039,7.7851,7.5195,7.2617,7.0,6.7422,6.6914,6.6914,6.6914,6.6914,6.7734,7.0273,7.1406,7.289,7.5586,7.7422,7.9453,0.0,0.0,8.4648,8.7226,8.8984,9.0312,9.1211,9.207,9.2578,9.2617,9.2617,9.2617,9.2617,9.3437,9.3906,9.3906,9.5625,9.6484,9.6484,9.7304,9.6367,9.4023,9.6562,9.6328,9.4062,9.6601,9.625,9.4062,9.664,9.6172,9.4101,9.6679,9.7695,9.7695,9.7695,9.7695,9.7695,9.7695,9.7695,9.7695,9.7695,9.7695,9.7695,9.7695,9.7695,9.7695,9.7695,9.7695,9.7695,9.7695,9.7695,9.7695,9.7695,9.7695,9.7695,9.7695,9.7695,9.7969,9.8828,9.8984,9.9258,10.0117,10.0312,10.0586,10.1484,10.1601,10.1914,10.2812,10.289,10.289,10.289,10.289,10.2187,10.039,10.0312,9.9922,9.9062,9.8984,9.8594,9.7734,9.7695,9.7695,9.7695,9.7695,9.7695,9.7695,9.7695,9.7695,9.7695,9.7539,9.7427,7.1953,7.4219,7.6289,7.6875,7.6445,7.5156,7.2539,7.1289,6.9961,6.7422,6.6914,6.6914,6.6914,6.6914,6.7734,7.0273,7.0937,7.3047,7.8594,0.0,0.0,8.539,8.6562,8.7656,0.0,0.0,8.9375,9.1992,9.0781,9.0703,9.25,9.3164,9.3476,9.3476,9.375,9.4453,9.5664,9.6211,9.6797,9.7304,9.7578,9.6367,9.3984,9.6523,9.6328,9.4023,9.6601,9.625,9.4101,9.664,9.6211,9.414,9.6719,9.7695,9.7695,9.7695,9.7695,9.7695,9.7695,9.7695,9.7695,9.7695,9.7695,9.7695,9.7695,9.7695,9.7695,9.7695,9.7695,9.7695,9.7695,9.7695,9.7695,9.7695,9.7695,9.7695,9.7695,9.8164,9.8672,9.8945,9.9492,10.0195,10.1015,10.1211,10.1484,10.2383,10.25,10.2617,10.289,10.289,10.289,10.289,10.289,10.2695,10.2109,10.1484,10.1094,10.0781,9.9648,9.8867,9.8594,9.8008,9.7695,9.7695,9.7695,9.7695,9.7695,9.7695,9.7695,9.7695,9.7656,9.7574,0.0,7.1328,7.3515,7.4375,7.3867,7.2695,7.1055,6.9961,6.8828,6.7226,6.7656,6.8047,0.0,0.0,0.0,0.0,7.0976,7.3828,0.0,0.0,0.0,8.5156,0.0,0.0,0.0,8.9531,8.9961,9.2422,9.1094,9.1015,9.3008,9.3594,9.4219,9.4844,9.4883,9.539,9.6484,9.6797,9.7187,9.7695,9.7695,9.6367,9.3984,9.6523,9.6328,9.4023,9.6601,9.6797,0.0,9.7031,9.6758,9.5508,9.707,9.7695,9.7695,9.7695,9.7695,9.7695,9.7695,9.7695,9.7695,9.7695,9.7695,9.7695,9.7695,9.7695,9.7695,9.7695,9.7695,9.7695,9.7695,9.7695,9.7695,9.7695,9.7969,9.8203,9.8203,9.8867,9.9609,9.9922,10.039,10.1094,10.1914,10.2109,10.2304,10.2812,10.289,10.289,10.289,10.289,10.289,10.289,10.289,10.289,10.289,10.2383,10.1992,10.1601,10.0586,9.9687,9.9023,9.8476,9.8047,9.7695,9.7695,9.7695,9.7695,9.7695,9.7695,9.7695,9.7695,9.7656,0.0,0.0,7.2851,7.375,7.2187,7.043,0.0,0.0,0.0,0.0,0.0,0.0,0.0,0.0,0.0,0.0,0.0,0.0,0.0,7.6836,0.0,0.0,8.4804,0.0,9.082,9.1289,9.1719,9.2539,9.2617,9.2969,9.3867,9.3945,9.4765,9.6445,9.6562,9.6601,9.6601,9.7344,9.7617,9.7422,9.7617,9.6289,9.3711,9.6445,9.6328,9.4023,9.6601,9.7695,9.7695,9.7695,9.7695,9.7695,9.7695,9.7695,9.7695,9.7695,9.7695,9.7695,9.7695,9.7695,9.7695,9.7695,9.7695,9.7695,9.7695,9.7695,9.7695,9.7695,9.7695,9.7695,9.7695,9.7734,9.7773,9.7773,9.8476,9.9101,9.9101,9.9765,10.0586,10.1406,10.1719,10.1914,10.2812,10.289,10.289,10.289,10.289,10.289,10.289,10.289,10.289,10.289,10.289,10.289,10.289,10.289,10.2617,10.1719,10.1601,10.0781,9.914,9.9023,9.8594,9.7734,9.7695,9.7695,9.7695,9.7695,9.7695,9.7695,9.7695,9.7695,0.0,0.0,6.6601,6.75,6.7734,6.7773,0.0,0.0,0.0,0.0,0.0,0.0,0.0,0.0,0.0,0.0,0.0,0.0,0.0,0.0,0.0,0.0,8.6719,8.914,8.9297,9.1133,9.2383,9.2578,9.2617,9.2969,9.3867,9.4531,9.539,9.6484,9.7109,9.7422,9.7422,9.7617,9.6719,9.4804,9.6758,9.5312,9.1054,9.5625,9.6328,9.4023,9.6601,9.7695,9.7695,9.7695,9.7695,9.7695,9.7695,9.7695,9.7695,9.7695,9.7695,9.7695,9.7695,9.7695,9.7695,9.7695,9.7695,9.7695,9.7695,9.7695,9.7695,9.7695,9.7695,9.7695,9.7695,9.8203,9.8672,9.8672,9.9375,10.0,10.0,10.0703,10.1406,10.1601,10.2109,10.2695,10.289,10.289,10.289,10.289,10.289,10.289,10.289,10.289,10.289,10.289,10.289,10.289,10.289,10.289,10.2812,10.2617,10.1992,10.1094,10.0,9.9336,9.8594,9.7734,9.7695,9.7695,9.7695,9.7695,9.7695,9.7695,9.7695,9.7695,6.2265,6.332,6.4805,6.6836,6.7109,6.7226,0.0,0.0,0.0,0.0,0.0,0.0,0.0,0.0,0.0,0.0,0.0,0.0,0.0,0.0,0.0,8.3672,8.6367,8.8359,0.0,9.1054,9.2617,9.2617,9.2969,9.3594,9.4453,9.5312,9.6172,9.7031,9.7461,9.7695,9.7695,9.7695,9.6406,9.3945,9.6484,9.5625,9.1914,9.5898,9.6953,9.5664,9.5859,9.6601,9.7617,9.6445,9.664,9.7695,9.7695,9.7929,9.8281,9.8281,9.8554,9.8906,9.8906,9.8906,9.8906,9.8906,9.8906,9.8906,9.8906,9.8906,9.8828,9.8398,9.8281,9.8398,9.8789,9.9258,9.9609,9.9609,10.0312,10.0898,10.0898,10.1601,10.2187,10.2187,10.2617,10.289,10.289,10.289,10.289,10.289,10.289,10.289,10.289,10.289,10.289,10.289,10.289,10.289,10.289,10.289,10.289,10.289,10.25,10.1797,10.0898,10.0117,9.8984,9.7734,9.7695,9.7695,9.7695,9.7695,9.7695,9.7695,9.7695,9.7695,6.1875,6.3086,6.5078,6.8398,6.8047,6.7578,0.0,0.0,0.0,0.0,0.0,0.0,0.0,0.0,0.0,0.0,0.0,0.0,0.0,8.3281,8.3945,8.3828,8.5664,0.0,8.8789,9.1133,9.2617,9.2617,9.3398,9.4297,9.5156,9.6015,9.6875,9.7656,9.7695,9.7695,9.7695,9.7695,9.6406,9.3945,9.6484,9.6367,9.3984,9.6523,9.7695,9.7578,9.5429,9.5703,9.7539,9.5508,9.5937,9.789,9.8047,9.8554,9.9219,9.9219,9.9687,10.0312,10.0312,10.0312,10.0312,10.0312,10.0312,10.0312,10.0312,10.0312,10.0195,9.957,9.9297,9.9375,10.0117,10.039,10.0508,10.0508,10.1211,10.1797,10.1797,10.2383,10.289,10.289,10.289,10.289,10.289,10.289,10.289,10.289,10.289,10.289,10.289,10.289,10.289,10.289,10.289,10.289,10.289,10.289,10.289,10.289,10.289,10.25,10.1601,10.0586,9.9414,9.7929,9.7773,9.7695,9.7695,9.7695,9.7695,9.7695,9.7695,9.7695,6.2617,6.3515,6.4961,6.7695,6.7656,6.7578,0.0,0.0,0.0,0.0,0.0,0.0,0.0,0.0,0.0,0.0,0.0,7.9844,0.0,0.0,8.5547,8.4804,0.0,9.0312,8.9844,9.1484,9.2617,9.2617,9.3398,9.4297,9.5156,9.6015,9.6875,9.7656,9.7695,9.7695,9.7695,9.7695,9.6406,9.3945,9.6484,9.6367,9.3984,9.6523,9.7695,9.7695,9.7304,9.7344,9.7734,9.8086,9.8437,9.8867,9.9609,9.9961,10.0117,10.0117,10.0195,10.0312,10.0312,10.0312,10.0312,10.0312,10.0312,10.0312,10.0312,10.0312,10.039,10.1015,10.0703,10.0117,10.0312,10.0781,10.1406,10.1406,10.2109,10.2695,10.2695,10.2812,10.289,10.289,10.289,10.289,10.289,10.289,10.289,10.289,10.289,10.289,10.289,10.289,10.289,10.289,10.289,10.289,10.289,10.289,10.289,10.289,10.289,10.25,10.1601,10.0117,9.9062,9.8828,9.8086,9.7695,9.7695,9.7695,9.7695,9.7695,9.7695,9.7695,6.2187,6.3281,6.5273,6.9258,6.8555,6.832,0.0,0.0,0.0,0.0,0.0,0.0,0.0,0.0,0.0,0.0,0.0,8.4023,8.4375,8.5859,8.6758,0.0,0.0,9.0273,8.9375,9.1289,9.2812,9.3281,9.4101,9.4961,9.5859,9.6679,9.7304,9.7695,9.7695,9.7695,9.7695,9.7695,9.6406,9.3945,9.6484,9.6367,9.3984,9.6523,9.7695,9.7656,9.6758,9.7148,9.8359,9.7851,9.8476,9.9726,10.0117,10.0586,10.1094,10.1484,10.1719,10.1719,10.1719,10.1719,10.1719,10.1719,10.1719,10.1719,10.1719,10.1719,10.1797,10.2187,10.1719,10.1094,10.1601,10.1992,10.2304,10.2304,10.2617,10.289,10.289,10.289,10.289,10.289,10.289,10.289,10.289,10.289,10.289,10.289,10.289,10.289,10.289,10.289,10.289,10.289,10.289,10.289,10.289,10.289,10.289,10.289,10.289,10.25,10.1601,10.0781,9.9961,9.9023,9.8594,9.8164,9.7695,9.7695,9.7695,9.7695,9.7695,9.7695,6.1953,6.3125,6.5469,0.0,0.0,0.0,0.0,0.0,0.0,0.0,0.0,0.0,0.0,7.6015,0.0,8.0898,8.457,8.6875,8.6797,8.7539,8.8164,8.8359,8.9687,9.0351,8.9687,9.1406,9.2969,9.3828,9.4726,9.5586,9.6445,9.7265,9.7695,9.7695,9.7695,9.7695,9.7695,9.7695,9.6719,9.4804,9.6758,9.6679,9.4844,9.6797,9.7812,9.7929,9.664,9.7304,9.9219,9.8125,9.8828,10.0586,10.0781,10.1289,10.1992,10.2695,10.289,10.289,10.289,10.289,10.289,10.289,10.289,10.289,10.289,10.289,10.289,10.289,10.2383,10.2109,10.2695,10.289,10.289,10.289,10.289,10.289,10.289,10.289,10.289,10.289,10.289,10.289,10.289,10.289,10.289,10.289,10.289,10.289,10.289,10.289,10.289,10.289,10.289,10.289,10.289,10.289,10.289,10.289,10.289,10.2617,10.1914,10.1719,10.1015,9.9648,9.9219,9.8672,9.8008,9.7812,9.7695,9.7695,9.7695,9.7695,6.2695,6.3594,6.5156,0.0,0.0,0.0,0.0,0.0,0.0,0.0,0.0,0.0,0.0,0.0,8.1094,8.3086,8.4336,8.5898,8.8203,0.0,9.0117,9.0937,9.1836,9.2383,9.2344,9.25,9.2969,9.3828,9.4726,9.5586,9.6445,9.7265,9.7695,9.7695,9.7695,9.7695,9.7695,9.7695,9.7617,9.7422,9.7617,9.7617,9.7422,9.7617,9.8125,9.8906,9.8789,9.9297,10.0312,10.0898,10.1289,10.1601,10.2383,10.2812,10.2812,10.289,10.289,10.289,10.289,10.289,10.289,10.289,10.289,10.289,10.289,10.289,10.289,10.289,10.289,10.2812,10.289,10.289,10.289,10.289,10.289,10.289,10.289,10.289,10.289,10.289,10.289,10.289,10.289,10.289,10.289,10.289,10.289,10.289,10.289,10.289,10.289,10.289,10.289,10.289,10.289,10.289,10.289,10.289,10.289,10.289,10.2812,10.1992,10.1484,10.1406,9.9804,9.8984,9.8906,9.8086,9.7695,9.7695,9.7695,9.7695,6.289,6.4023,6.6211,0.0,0.0,0.0,0.0,0.0,0.0,0.0,0.0,0.0,0.0,0.0,8.2812,8.3476,8.5664,8.7773,8.9297,9.0273,9.1133,9.1992,9.2383,9.2617,9.2617,9.3086,9.3789,9.4648,9.5508,9.6367,9.7187,9.7539,9.7695,9.7695,9.7695,9.7695,9.7695,9.7695,9.7695,9.7695,9.7695,9.7695,9.7734,9.8242,9.8672,9.9062,10.0117,10.0781,10.1211,10.1992,10.2383,10.2383,10.2812,10.289,10.289,10.289,10.289,10.289,10.289,10.289,10.289,10.289,10.289,10.289,10.289,10.289,10.289,10.289,10.289,10.289,10.289,10.289,10.289,10.289,10.289,10.289,10.289,10.289,10.289,10.289,10.289,10.289,10.289,10.289,10.289,10.289,10.289,10.289,10.289,10.289,10.289,10.289,10.289,10.289,10.289,10.289,10.289,10.289,10.289,10.289,10.289,10.2617,10.2187,10.1601,10.1015,10.0117,9.8984,9.8672,9.8242,9.7695,9.7695,9.7695,6.3359,6.4492,6.664,0.0,0.0,0.0,0.0,0.0,0.0,0.0,0.0,0.0,0.0,0.0,0.0,0.0,8.6015,8.8398,8.9804,9.0742,9.1601,9.25,9.2617,9.2617,9.2617,9.3398,9.4258,9.5117,9.6015,9.6836,9.7656,9.7695,9.7695,9.7695,9.7695,9.7695,9.7695,9.7695,9.7695,9.7695,9.7969,9.8125,9.8125,9.8711,9.9297,9.9883,10.1094,10.1797,10.2109,10.2695,10.289,10.289,10.289,10.289,10.289,10.289,10.289,10.289,10.289,10.289,10.289,10.289,10.289,10.289,10.289,10.289,10.289,10.289,10.289,10.289,10.289,10.289,10.289,10.289,10.289,10.289,10.289,10.289,10.289,10.289,10.289,10.289,10.289,10.289,10.289,10.289,10.289,10.289,10.289,10.289,10.289,10.289,10.289,10.289,10.289,10.289,10.289,10.289,10.289,10.289,10.289,10.289,10.2617,10.1992,10.1719,10.1015,9.9804,9.9258,9.8672,9.8086,9.7812,9.7695,6.4101,6.4961,0.0,0.0,0.0,0.0,0.0,0.0,0.0,0.0,0.0,0.0,0.0,0.0,0.0,8.375,8.5078,8.7109,8.9648,9.0742,9.164,9.25,9.2617,9.2617,9.2617,9.3398,9.4258,9.5156,9.6015,9.6875,9.7656,9.7695,9.7695,9.7695,9.7695,9.7695,9.7695,9.7695,9.7695,9.7734,9.8594,9.8984,9.8984,9.9023,9.9961,10.1601,10.1601,10.2109,10.289,10.289,10.289,10.289,10.289,10.289,10.289,10.289,10.289,10.289,10.289,10.289,10.289,10.289,10.289,10.289,10.289,10.289,10.289,10.289,10.289,10.289,10.289,10.289,10.289,10.289,10.289,10.289,10.289,10.289,10.289,10.289,10.289,10.289,10.289,10.289,10.289,10.289,10.289,10.289,10.289,10.289,10.289,10.289,10.289,10.289,10.289,10.289,10.289,10.289,10.289,10.289,10.289,10.289,10.289,10.289,10.2109,10.1601,10.1601,9.9883,9.9023,9.8984,9.8125,9.7695,6.7148,0.0,0.0,0.0,0.0,0.0,0.0,0.0,0.0,0.0,0.0,0.0,0.0,0.0,0.0,8.4765,8.6953,8.9336,9.0703,9.164,9.2304,9.2578,9.2617,9.2851,9.3437,9.4297,9.5195,9.6054,9.6875,9.7461,9.7695,9.7695,9.7695,9.7695,9.7695,9.7695,9.7695,9.7695,9.8008,9.8633,9.8867,9.8984,9.9023,10.0312,10.1094,10.1601,10.2187,10.2695,10.289,10.289,10.289,10.289,10.289,10.289,10.289,10.289,10.289,10.289,10.289,10.289,10.289,10.289,10.289,10.289,10.289,10.289,10.289,10.289,10.289,10.289,10.289,10.289,10.289,10.289,10.289,10.289,10.289,10.289,10.289,10.289,10.289,10.289,10.289,10.289,10.289,10.289,10.289,10.289,10.289,10.289,10.289,10.289,10.289,10.289,10.289,10.289,10.289,10.289,10.289,10.289,10.289,10.289,10.289,10.289,10.2617,10.2187,10.1601,10.1094,10.0508,9.9883,9.9023,9.8594,6.9258,0.0,0.0,0.0,0.0,0.0,0.0,0.0,0.0,0.0,0.0,0.0,0.0,8.5976,0.0,8.6562,8.8711,9.0703,9.1211,9.2031,9.2617,9.2617,9.2617,9.2929,9.3828,9.4687,9.5547,9.6445,9.7265,9.7695,9.7695,9.7695,9.7695,9.7695,9.7695,9.7695,9.7695,9.8047,9.8476,9.9023,9.9687,10.0,10.0117,10.1094,10.1797,10.2109,10.2695,10.289,10.289,10.289,10.289,10.289,10.289,10.289,10.289,10.289,10.289,10.289,10.289,10.289,10.289,10.289,10.289,10.289,10.289,10.289,10.289,10.289,10.289,10.289,10.289,10.289,10.289,10.289,10.289,10.289,10.289,10.289,10.289,10.289,10.289,10.289,10.289,10.289,10.289,10.289,10.289,10.289,10.289,10.289,10.289,10.289,10.289,10.289,10.289,10.289,10.289,10.289,10.289,10.289,10.289,10.289,10.289,10.289,10.289,10.2617,10.2109,10.1797,10.1289,10.0781,9.9922,9.9531,0.0,0.0,0.0,0.0,0.0,0.0,0.0,0.0,0.0,0.0,0.0,8.7226,8.7461,8.8164,8.8711,8.8828,9.0195,9.1328,9.1406,9.2109,9.2617,9.2617,9.2656,9.3047,9.3945,9.4804,9.5664,9.6523,9.7304,9.7695,9.7695,9.7695,9.7695,9.7695,9.7695,9.7734,9.7812,9.8594,9.9062,9.9258,10.0781,10.1601,10.1719,10.1719,10.2187,10.289,10.289,10.289,10.289,10.289,10.289,10.289,10.2889,10.2889,10.289,10.289,10.289,10.2888,10.2888,10.2889,10.289,10.289,10.289,10.289,10.289,10.289,10.289,10.2889,10.2889,10.289,10.289,10.289,10.289,10.289,10.289,10.289,10.289,10.289,10.289,10.289,10.289,10.289,10.289,10.289,10.289,10.289,10.289,10.289,10.289,10.289,10.289,10.289,10.289,10.289,10.289,10.289,10.289,10.289,10.289,10.289,10.289,10.289,10.289,10.289,10.289,10.289,10.289,10.2109,10.1719,10.1719,10.0781,10.039,0.0,7.2265,0.0,0.0,0.0,0.0,0.0,0.0,0.0,0.0,8.5742,8.5078,8.7109,8.8164,8.8906,8.9609,9.0625,9.1523,9.2226,9.2461,9.2617,9.2617,9.3203,9.3945,9.4844,9.5703,9.6562,9.7383,9.7617,9.7695,9.7695,9.7695,9.7695,9.7695,9.7695,9.8047,9.8711,9.8906,9.9687,10.1015,10.1406,10.1992,10.2617,10.2617,10.2695,10.289,10.289,10.289,10.289,10.289,10.289,10.2889,10.2802,10.2913,10.289,10.2812,10.2783,10.2815,10.2815,10.2792,10.281,10.281,10.281,10.2783,10.281,10.2812,10.2808,10.2792,10.2888,10.289,10.2812,10.289,10.289,10.289,10.289,10.289,10.289,10.289,10.289,10.289,10.289,10.289,10.289,10.289,10.289,10.289,10.289,10.289,10.289,10.289,10.289,10.289,10.289,10.289,10.289,10.289,10.289,10.289,10.289,10.289,10.289,10.289,10.289,10.289,10.289,10.289,10.289,10.2695,10.2617,10.2617,10.1719,10.1289,0.0,0.0,0.0,0.0,0.0,0.0,0.0,0.0,8.5859,8.7226,8.6406,8.6015,8.7734,8.875,8.9609,9.0469,9.1367,9.207,9.2539,9.2617,9.2617,9.2617,9.3359,9.4258,9.5117,9.5976,9.6836,9.7656,9.7695,9.7695,9.7695,9.7695,9.7695,9.7695,9.8086,9.8554,9.8984,9.9844,10.0703,10.1601,10.1986,10.2484,10.2914,10.2888,10.2913,10.2913,10.2905,10.2914,10.2914,10.2914,10.2914,10.2792,10.2792,10.2782,10.2796,10.2788,10.2796,10.2815,10.2787,10.2815,10.2788,10.2788,10.2788,10.28,10.282,10.2816,10.2788,10.2821,10.2792,10.2803,10.2792,10.2797,10.2914,10.2914,10.2886,10.289,10.289,10.289,10.289,10.289,10.289,10.289,10.289,10.289,10.289,10.289,10.289,10.289,10.289,10.289,10.289,10.289,10.289,10.289,10.289,10.289,10.289,10.289,10.289,10.289,10.289,10.289,10.289,10.289,10.289,10.289,10.289,10.289,10.289,10.289,10.2383,10.2187,0.0,0.0,0.0,0.0,0.0,0.0,8.3281,8.5078,8.6953,8.7422,8.75,8.7734,8.8554,8.9414,9.0273,9.1172,9.2031,9.2617,9.2617,9.2617,9.2656,9.2812,9.3594,9.4453,9.5351,9.6211,9.6992,9.7656,9.7695,9.7695,9.7695,9.7695,9.7695,9.7695,9.8554,9.9062,9.9216,10.0818,10.1716,10.1794,10.2587,10.2913,10.2906,10.2803,10.2811,10.2796,10.28,10.2802,10.2802,10.2802,10.2802,10.2802,10.2802,10.2788,10.2811,10.2811,10.2802,10.2792,10.2801,10.2796,10.2796,10.2796,10.2796,10.2796,10.2796,10.2803,10.2802,10.2802,10.2815,10.2787,10.2782,10.2802,10.2802,10.2802,10.2816,10.2884,10.2888,10.289,10.289,10.289,10.289,10.289,10.289,10.289,10.289,10.289,10.289,10.289,10.289,10.289,10.289,10.289,10.289,10.289,10.289,10.289,10.289,10.289,10.289,10.289,10.289,10.289,10.289,10.289,10.289,10.289,10.289,10.289,10.289,10.289,10.289,10.289,0.0,0.0,7.5586,0.0,8.0078,8.0664,0.0,0.0,8.4765,8.7031,8.75,8.7734,8.8554,8.9414,9.0273,9.1172,9.2031,9.2617,9.2617,9.2617,9.289,9.3633,9.4492,9.5351,9.625,9.707,9.7578,9.7695,9.7695,9.7695,9.7695,9.7695,9.7695,9.7695,9.8554,9.9369,10.0109,10.1085,10.1983,10.2686,10.2783,10.2894,10.2906,10.2782,10.2803,10.2796,10.2811,10.2787,10.2787,10.2787,10.2787,10.2787,10.2709,10.2694,10.2796,10.2709,10.2709,10.2709,10.2679,10.2718,10.2601,10.2601,10.2601,10.2601,10.2718,10.2694,10.2709,10.2709,10.2811,10.2796,10.2709,10.2787,10.2787,10.2787,10.2801,10.2815,10.2789,10.28,10.2812,10.2812,10.289,10.289,10.289,10.289,10.289,10.289,10.289,10.289,10.289,10.289,10.289,10.289,10.289,10.289,10.289,10.289,10.289,10.289,10.289,10.289,10.289,10.289,10.289,10.289,10.289,10.289,10.289,10.289,10.289,10.289,10.289,10.289,6.9883,7.207,7.4765,0.0,8.0469,7.9492,8.6015,8.5117,8.375,8.6875,8.75,8.789,8.9179,8.9726,9.0469,9.1797,9.2344,9.2617,9.2617,9.2617,9.2929,9.3789,9.4687,9.5547,9.6406,9.7226,9.7695,9.7695,9.7695,9.7695,9.7695,9.7695,9.7929,9.8398,9.9263,10.009,10.1021,10.1801,10.2476,10.2782,10.2802,10.2792,10.2811,10.28,10.2788,10.2803,10.2801,10.2709,10.2709,10.2694,10.2718,10.2718,10.2718,10.2718,10.2718,10.2718,10.2601,10.2601,10.2601,10.2601,10.2601,10.2601,10.2601,10.2601,10.2601,10.2601,10.2601,10.2601,10.2718,10.2718,10.2718,10.2718,10.2718,10.2718,10.2718,10.2694,10.2686,10.2704,10.2803,10.2811,10.2812,10.289,10.289,10.289,10.289,10.289,10.289,10.289,10.289,10.289,10.289,10.289,10.289,10.289,10.289,10.289,10.289,10.289,10.289,10.289,10.289,10.289,10.289,10.289,10.289,10.289,10.289,10.289,10.289,10.289,10.289,10.289,0.0,0.0,7.3476,8.1054,7.9726,7.8164,8.4414,8.3515,8.2422,8.6367,8.7344,8.8086,8.9961,9.0156,9.0586,9.2304,9.2617,9.2617,9.2617,9.2773,9.3242,9.414,9.5,9.5859,9.6719,9.7344,9.7695,9.7695,9.7695,9.7695,9.7695,9.7689,9.811,9.8969,9.9846,10.0696,10.149,10.228,10.2815,10.2788,10.2698,10.2686,10.2686,10.2698,10.2722,10.2811,10.2686,10.2698,10.2685,10.2616,10.2601,10.2601,10.2601,10.2601,10.2601,10.2601,10.2601,10.2601,10.2601,10.2601,10.2601,10.2601,10.2601,10.2601,10.2601,10.2601,10.2601,10.2601,10.2601,10.2601,10.2601,10.2601,10.2601,10.2601,10.2601,10.2601,10.2601,10.2718,10.279,10.2783,10.2803,10.281,10.289,10.289,10.289,10.289,10.289,10.289,10.289,10.289,10.289,10.289,10.289,10.289,10.289,10.289,10.289,10.289,10.289,10.289,10.289,10.289,10.289,10.289,10.289,10.289,10.289,10.289,10.289,10.289,10.289,10.289,0.0,6.9609,0.0,7.6445,7.6172,7.5898,8.0312,7.9961,8.0156,8.5234,8.6914,8.8242,9.0781,9.0547,9.0586,9.2304,9.2617,9.2617,9.2617,9.332,9.414,9.5039,9.5898,9.6758,9.7578,9.7695,9.7695,9.7695,9.7695,9.7695,9.7695,9.7689,9.8095,9.8977,9.9768,10.0595,10.1492,10.2281,10.2686,10.271,10.271,10.271,10.271,10.271,10.271,10.271,10.2712,10.2709,10.2601,10.2601,10.2601,10.2601,10.2601,10.2601,10.2601,10.2601,10.2601,10.2601,10.2601,10.2601,10.2601,10.2601,10.2601,10.2601,10.2601,10.2601,10.2601,10.2601,10.2601,10.2601,10.2601,10.2601,10.2601,10.2601,10.2601,10.2601,10.2718,10.2718,10.2679,10.2811,10.2811,10.2816,10.2811,10.2812,10.2812,10.289,10.289,10.289,10.289,10.289,10.289,10.289,10.289,10.289,10.289,10.289,10.289,10.289,10.289,10.289,10.289,10.289,10.289,10.289,10.289,10.289,10.289,10.289,10.289,10.289,10.289,10.289,0.0,0.0,6.957,7.5,7.3398,7.207,7.8047,7.8515,7.8633,8.2148,8.5351,8.7773,8.8672,8.9492,9.0586,9.2304,9.2617,9.2617,9.2617,9.3359,9.4219,9.5117,9.5976,9.6836,9.7617,9.7695,9.7695,9.7695,9.6144,9.5941,9.7602,9.6646,9.7187,9.9678,10.0579,10.1386,10.2296,10.249,10.2592,10.2607,10.2607,10.2607,10.2607,10.2607,10.2607,10.2607,10.2592,10.2592,10.2709,10.2616,10.2601,10.2601,10.2601,10.2601,10.2601,10.2601,10.2601,10.2601,10.2601,10.2601,10.2601,10.2601,10.2601,10.2601,10.2601,10.2601,10.2601,10.2709,10.2709,10.2685,10.2712,10.2712,10.2712,10.2712,10.2712,10.2712,10.2712,10.2709,10.2718,10.2718,10.2685,10.2698,10.2821,10.2796,10.2797,10.2812,10.2812,10.289,10.289,10.289,10.289,10.289,10.289,10.289,10.289,10.289,10.289,10.289,10.289,10.289,10.289,10.289,10.289,10.289,10.289,10.289,10.289,10.289,10.289,10.289,10.289,10.289,6.6523,0.0,0.0,7.2226,7.0937,6.9961,7.5156,7.7226,7.8789,8.1328,8.5078,8.8164,8.9062,8.9648,9.0586,9.2304,9.2617,9.2617,9.2617,9.3594,9.4531,9.5117,9.6211,9.7109,9.7656,9.7695,9.7693,9.7711,9.61,9.5849,9.7589,9.6797,9.7667,10.0497,10.1393,10.2094,10.2718,10.2601,10.2601,10.2601,10.2601,10.2601,10.2601,10.2601,10.2601,10.2601,10.2601,10.2616,10.2709,10.2616,10.2601,10.2601,10.2601,10.2601,10.2577,10.2577,10.2577,10.2577,10.2577,10.2616,10.2601,10.2601,10.2601,10.2601,10.2616,10.2577,10.2592,10.2712,10.2712,10.2686,10.2698,10.271,10.271,10.271,10.271,10.271,10.271,10.2712,10.2607,10.2724,10.2724,10.2709,10.2787,10.2815,10.2811,10.2792,10.281,10.2812,10.289,10.289,10.289,10.289,10.289,10.289,10.289,10.289,10.289,10.289,10.289,10.289,10.289,10.289,10.289,10.289,10.289,10.289,10.289,10.289,10.289,10.289,10.289,10.289,0.0,0.0,0.0,0.0,6.8789,6.9805,7.1523,7.5898,8.0312,8.2929,8.6211,8.9414,9.1992,9.1133,9.0586,9.2304,9.2617,9.2617,9.2617,9.4101,9.5195,9.5234,9.6719,9.7695,9.7695,9.7695,9.7715,9.7681,9.7613,9.7589,9.7603,9.8407,9.9639,10.1393,10.2211,10.2601,10.2601,10.2601,10.2601,10.2601,10.2601,10.2601,10.2601,10.2601,10.2601,10.2601,10.2601,10.2601,10.2601,10.2601,10.2601,10.2601,10.2601,10.2577,10.2698,10.2698,10.2698,10.2698,10.2698,10.2709,10.2601,10.2601,10.2601,10.2601,10.2685,10.2698,10.2698,10.2698,10.271,10.271,10.271,10.271,10.271,10.271,10.271,10.271,10.271,10.271,10.271,10.271,10.271,10.2698,10.2803,10.2709,10.2709,10.2893,10.2783,10.2812,10.289,10.289,10.289,10.289,10.289,10.289,10.289,10.289,10.289,10.289,10.289,10.289,10.289,10.289,10.289,10.289,10.289,10.289,10.289,10.289,10.289,10.289,10.289,10.289,6.5312,0.0,0.0,0.0,0.0,0.0,6.9922,7.3711,7.75,7.9492,8.3633,8.7461,8.9414,9.0429,9.1289,9.2422,9.2617,9.2812,9.3437,9.4492,9.5429,9.6054,9.707,9.7687,9.77,9.7689,9.77,9.7632,9.5888,9.5626,9.7511,9.8938,10.0497,10.2211,10.2484,10.2601,10.2601,10.2601,10.2601,10.2601,10.2601,10.2601,10.2601,10.2601,10.2601,10.2601,10.2601,10.2601,10.2601,10.2601,10.2601,10.2601,10.2601,10.2601,10.2616,10.2616,10.2616,10.2616,10.2616,10.2616,10.2601,10.2601,10.2601,10.2601,10.2616,10.2709,10.2698,10.2698,10.2683,10.2782,10.2802,10.2811,10.2811,10.2811,10.2811,10.2811,10.2811,10.2811,10.2802,10.2722,10.271,10.271,10.2698,10.2686,10.2686,10.2803,10.2792,10.2816,10.289,10.289,10.289,10.289,10.289,10.289,10.289,10.289,10.289,10.289,10.289,10.289,10.289,10.289,10.289,10.289,10.289,10.289,10.289,10.289,10.289,10.289,10.289,10.289,0.0,0.0,0.0,0.0,0.0,0.0,6.9805,7.4453,7.8945,8.0351,8.4726,8.8515,8.914,8.9763,9.0494,9.1369,9.1515,9.207,9.3672,9.4648,9.5506,9.6373,9.7187,9.7675,9.7678,9.7656,9.7656,9.7611,9.6187,9.6288,9.8509,9.9912,10.1198,10.2601,10.2601,10.2601,10.2601,10.2601,10.2601,10.2601,10.2601,10.2601,10.2601,10.2601,10.2601,10.2601,10.2601,10.2601,10.2601,10.2601,10.2601,10.2601,10.2601,10.2616,10.2592,10.2592,10.2592,10.2592,10.2592,10.2616,10.2601,10.2601,10.2601,10.2601,10.2577,10.2724,10.2698,10.2698,10.2694,10.2792,10.2811,10.2781,10.2789,10.2789,10.2789,10.2789,10.2789,10.2789,10.2781,10.2714,10.2704,10.2704,10.2704,10.2694,10.2811,10.2811,10.2811,10.2811,10.2914,10.2884,10.2886,10.2921,10.2888,10.289,10.289,10.289,10.289,10.289,10.289,10.289,10.289,10.289,10.289,10.289,10.289,10.289,10.289,10.289,10.289,10.289,10.289,10.289,0.0,0.0,0.0,0.0,0.0,0.0,7.0508,7.6289,8.1758,8.2929,8.6875,8.9998,8.9478,8.8758,8.8517,8.9261,8.9477,9.0506,9.3203,9.453,9.5407,9.6031,9.7043,9.7669,9.7611,9.7616,9.7613,9.7574,9.7691,9.8431,9.999,10.0886,10.1782,10.2601,10.2601,10.2601,10.2601,10.2601,10.2601,10.2601,10.2601,10.2601,10.2601,10.2601,10.2601,10.2601,10.2601,10.2601,10.2601,10.2601,10.2601,10.2601,10.2601,10.2577,10.2685,10.2685,10.2685,10.2685,10.2685,10.2592,10.2601,10.2601,10.2601,10.2601,10.2685,10.2698,10.2698,10.2698,10.2694,10.2792,10.2792,10.2811,10.2789,10.2789,10.2789,10.2789,10.2789,10.2789,10.2789,10.2789,10.2789,10.2789,10.2789,10.2811,10.2802,10.2789,10.2802,10.2792,10.2789,10.2894,10.29,10.2789,10.291,10.2888,10.2811,10.2889,10.2889,10.2889,10.289,10.289,10.289,10.289,10.289,10.289,10.289,10.289,10.289,10.289,10.289,10.289,10.289,10.289,0.0,0.0,0.0,0.0,0.0,0.0,7.0508,7.3515,7.6914,7.9844,8.1829,8.3518,8.5268,8.5588,8.5566,8.5517,8.6278,8.7993,9.1278,9.3678,9.4898,9.4363,9.6278,9.7628,9.7617,9.7589,9.7574,9.7535,9.8159,9.9016,9.999,10.0886,10.1782,10.2601,10.2601,10.2601,10.2601,10.2601,10.2601,10.2601,10.2601,10.2601,10.2601,10.2601,10.2601,10.2601,10.2601,10.2601,10.2601,10.2601,10.2601,10.2601,10.2601,10.2601,10.2616,10.2616,10.2616,10.2616,10.2616,10.2601,10.2601,10.2601,10.2601,10.2601,10.2616,10.2709,10.2698,10.2698,10.271,10.2683,10.2782,10.2792,10.2802,10.2781,10.2789,10.2789,10.2789,10.2789,10.2789,10.2789,10.2789,10.2789,10.2789,10.2789,10.2781,10.2789,10.2781,10.2781,10.2789,10.2796,10.2796,10.2906,10.2811,10.2811,10.2803,10.281,10.281,10.281,10.2806,10.2812,10.2812,10.289,10.289,10.289,10.289,10.289,10.289,10.289,10.289,10.289,10.289,10.289,0.0,0.0,0.0,6.7229,0.0,0.0,0.0,7.3445,7.6223,7.8377,8.0523,8.2104,8.2467,8.2922,8.3205,8.2993,8.357,8.4763,8.6863,9.0975,9.4289,9.5522,9.6837,9.7574,9.7535,9.7535,9.7535,9.7496,9.8704,9.9639,10.0107,10.1315,10.2211,10.2601,10.2601,10.2601,10.2601,10.2601,10.2601,10.2601,10.2601,10.2601,10.2601,10.2601,10.2601,10.2601,10.2601,10.2601,10.2601,10.2601,10.2601,10.2601,10.2601,10.2601,10.2601,10.2601,10.2601,10.2601,10.2601,10.2601,10.2601,10.2601,10.2601,10.2601,10.2601,10.2616,10.2709,10.2698,10.2712,10.2686,10.271,10.2811,10.2792,10.2811,10.2781,10.2789,10.2789,10.2789,10.2789,10.2789,10.2789,10.2789,10.2789,10.2789,10.2789,10.2789,10.2789,10.2789,10.2789,10.2789,10.2781,10.2811,10.2811,10.2788,10.2788,10.2788,10.2788,10.2788,10.2802,10.2803,10.2797,10.2797,10.2914,10.2914,10.2888,10.289,10.289,10.289,10.289,10.289,10.289,10.289,0.0,0.0,0.0,0.0,0.0,6.9874,0.0,0.0,0.0,7.7204,7.9609,8.1126,7.9893,8.0221,8.0484,7.9829,8.0551,8.1455,8.2198,8.7284,9.2054,9.5016,9.5796,9.6069,9.6015,9.6483,9.6951,9.7457,9.9094,10.0107,10.0107,10.1705,10.2601,10.2601,10.2601,10.2601,10.2601,10.2601,10.2601,10.2601,10.2601,10.2601,10.2601,10.2601,10.2601,10.2601,10.2601,10.2601,10.2601,10.2601,10.2601,10.2601,10.2601,10.2601,10.2601,10.2601,10.2601,10.2601,10.2601,10.2601,10.2601,10.2601,10.2601,10.2601,10.2601,10.2601,10.2601,10.2601,10.2577,10.2685,10.2698,10.2698,10.2821,10.2792,10.2811,10.2781,10.2789,10.2789,10.2789,10.2789,10.2789,10.2789,10.2789,10.2789,10.2789,10.2789,10.2789,10.2789,10.2789,10.2789,10.2781,10.2802,10.2811,10.2792,10.2685,10.2811,10.2811,10.2811,10.2796,10.2815,10.2802,10.2802,10.2802,10.2802,10.2783,10.2806,10.281,10.289,10.289,10.289,10.289,10.289,0.0,0.0,0.0,0.0,6.992,0.0,0.0,0.0,7.3704,7.5258,0.0,7.6295,7.664,0.0,0.0,7.3765,7.614,7.8534,7.9248,8.2805,8.5813,8.7157,8.9313,9.0665,9.0677,9.2781,9.508,9.734,9.9094,10.0107,10.0107,10.1705,10.2601,10.2601,10.2601,10.2601,10.2601,10.2601,10.2601,10.2601,10.2601,10.2601,10.2601,10.2601,10.2601,10.2601,10.2601,10.2601,10.2601,10.2601,10.2601,10.2601,10.2601,10.2601,10.2601,10.2601,10.2601,10.2601,10.2601,10.2601,10.2601,10.2601,10.2601,10.2601,10.2601,10.2601,10.2601,10.2601,10.2601,10.2616,10.2685,10.2698,10.2686,10.2782,10.2792,10.2802,10.2781,10.2789,10.2789,10.2789,10.2789,10.2789,10.2789,10.2789,10.2789,10.2789,10.2789,10.2789,10.2789,10.2789,10.2789,10.2789,10.2811,10.2792,10.2821,10.2686,10.2685,10.2685,10.2694,10.2679,10.2709,10.2787,10.2787,10.2787,10.2801,10.2788,10.2803,10.2806,10.2812,10.289,10.289,10.289,0.0,0.0,0.0,0.0,0.0,0.0,0.0,0.0,7.3427,0.0,0.0,0.0,0.0,0.0,0.0,0.0,7.5787,7.7326,7.8592,8.032,8.3081,8.7456,8.8623,8.9638,9.1144,9.0911,9.1963,9.5041,9.6873,9.7847,9.7847,10.0886,10.2601,10.2601,10.2601,10.2601,10.2601,10.2601,10.2601,10.2601,10.2601,10.2601,10.2601,10.2601,10.2601,10.2601,10.2601,10.2601,10.2601,10.2601,10.2601,10.2601,10.2601,10.2601,10.2601,10.2601,10.2601,10.2601,10.2601,10.2601,10.2601,10.2601,10.2601,10.2601,10.2601,10.2601,10.2601,10.2601,10.2601,10.2601,10.2577,10.2685,10.2698,10.2698,10.2811,10.2792,10.2802,10.282,10.2789,10.2789,10.2789,10.2789,10.2789,10.2789,10.2789,10.2789,10.2789,10.2789,10.2789,10.2789,10.2789,10.2789,10.282,10.2811,10.2792,10.2811,10.2698,10.2698,10.2694,10.2601,10.2601,10.2718,10.2718,10.2718,10.2718,10.2709,10.2698,10.2782,10.2796,10.2792,10.2888,10.289,7.6426,0.0,0.0,0.0,0.0,0.0,0.0,0.0,0.0,0.0,0.0,0.0,0.0,0.0,0.0,7.5003,0.0,7.6469,7.7428,7.8486,8.1173,8.6671,8.7394,8.8105,8.9755,8.904,8.9547,9.208,9.469,9.621,9.621,10.0302,10.2601,10.2601,10.2601,10.2601,10.2601,10.2601,10.2601,10.2601,10.2601,10.2601,10.2601,10.2601,10.2601,10.2601,10.2601,10.2601,10.2601,10.2601,10.2601,10.2601,10.2601,10.2601,10.2601,10.2601,10.2601,10.2601,10.2601,10.2601,10.2601,10.2601,10.2601,10.2601,10.2601,10.2601,10.2601,10.2601,10.2601,10.2601,10.2601,10.2577,10.2685,10.2698,10.2698,10.2811,10.2792,10.2802,10.2781,10.2789,10.2789,10.2789,10.2789,10.2789,10.2789,10.2789,10.2789,10.2789,10.2789,10.2789,10.2789,10.2789,10.2789,10.2781,10.2802,10.2792,10.2722,10.2685,10.2616,10.2601,10.2601,10.2601,10.2601,10.2601,10.2601,10.2718,10.2718,10.2718,10.2815,10.2792,10.2803,10.289,0.0,0.0,0.0,7.8054,0.0,0.0,0.0,0.0,7.3745,0.0,0.0,0.0,0.0,0.0,0.0,0.0,0.0,0.0,0.0,7.707,7.9602,8.1774,8.3672,8.4533,8.375,8.6598,8.8534,8.8651,9.3366,9.621,9.621,10.0302,10.2601,10.2601,10.2601,10.2601,10.2601,10.2601,10.2601,10.2601,10.2601,10.2601,10.2601,10.2601,10.2601,10.2601,10.2601,10.2601,10.2601,10.2601,10.2601,10.2601,10.2601,10.2601,10.2601,10.2601,10.2601,10.2601,10.2601,10.2601,10.2601,10.2601,10.2601,10.2601,10.2601,10.2601,10.2601,10.2601,10.2601,10.2601,10.2601,10.2601,10.2616,10.2685,10.2698,10.2686,10.2782,10.2792,10.2802,10.2781,10.2789,10.2789,10.2789,10.2789,10.2789,10.2789,10.2789,10.2789,10.2789,10.2789,10.2789,10.2789,10.2789,10.2789,10.2789,10.2704,10.2686,10.2601,10.2601,10.2601,10.2601,10.2601,10.2601,10.2601,10.2601,10.2601,10.2601,10.2718,10.2718,10.2694,10.2788,10.2812,8.5209,0.0,8.5401,8.4286,0.0,0.0,0.0,0.0,0.0,0.0,0.0,0.0,0.0,0.0,0.0,0.0,0.0,7.713,0.0,7.8987,7.9748,7.9971,8.0791,8.1633,8.2479,8.2533,8.3507,8.5806,8.9157,9.1105,9.1105,9.6795,10.0107,10.0107,10.1705,10.2601,10.2601,10.2601,10.2601,10.2601,10.2601,10.2601,10.2601,10.2601,10.2601,10.2601,10.2601,10.2601,10.2601,10.2601,10.2601,10.2601,10.2601,10.2601,10.2601,10.2601,10.2601,10.2601,10.2601,10.2601,10.2601,10.2601,10.2601,10.2601,10.2601,10.2601,10.2601,10.2601,10.2601,10.2601,10.2601,10.2601,10.2601,10.2616,10.2724,10.2712,10.271,10.2821,10.2802,10.2781,10.2789,10.2789,10.2789,10.2789,10.2789,10.2789,10.2789,10.2789,10.2789,10.2789,10.2789,10.2789,10.2789,10.2789,10.2789,10.2704,10.2698,10.2712,10.2592,10.2601,10.2601,10.2601,10.2601,10.2601,10.2601,10.2601,10.2601,10.2601,10.2601,10.2601,10.2698,10.282,8.8671,8.921,8.9056,8.844,8.7055,0.0,8.4709,0.0,0.0,0.0,0.0,0.0,0.0,0.0,0.0,0.0,0.0,0.0,0.0,7.9787,7.9724,7.8663,7.9664,8.0377,8.0182,8.0338,8.1103,8.2727,8.6079,8.8183,8.8495,9.5041,9.8782,9.8782,10.1315,10.2601,10.2601,10.2601,10.2601,10.2601,10.2601,10.2601,10.2601,10.2601,10.2601,10.2601,10.2601,10.2601,10.2601,10.2601,10.2601,10.2601,10.2601,10.2601,10.2601,10.2601,10.2601,10.2601,10.2601,10.2601,10.2601,10.2601,10.2601,10.2601,10.2601,10.2601,10.2796,10.3692,10.3302,10.2796,10.3692,10.3302,10.2601,10.2601,10.2577,10.2685,10.2686,10.2722,10.2782,10.2811,10.2781,10.2789,10.2789,10.2789,10.2789,10.2789,10.2789,10.2789,10.2789,10.2789,10.2789,10.2789,10.2789,10.2789,10.282,10.2782,10.2722,10.2698,10.2685,10.2616,10.2601,10.2601,10.2601,10.2601,10.2601,10.2601,10.2601,10.2601,10.2601,10.2601,10.2601,10.2698]},{"header":{"parameterUnit":"m.s-1","parameterCategory":1,"la1":30.6,"la2":29.2853,"lo1":-89.7004,"lo2":-87.6739,"dy":0.0162,"dx":0.0183,"nx":112,"ny":82,"refTime":"2023-03-13T12:00:00:Z","depth":0,"parameterNumber":3,"parameterNumberName":"V-component_of_WINDS"},"data":[0.0,0.0,0.0,0.0,0.0,0.0,0.0,0.0,0.0,0.0,0.0,0.0,0.0,0.0,0.0,0.0,0.0,0.0,0.0,0.0,0.0,0.0,0.0,0.0,0.0,0.0,0.0,0.0,0.0,0.0,0.0,0.0,0.0,0.0,0.0,0.0,0.0,0.0,0.0,0.0,0.0,0.0,0.0,0.0,0.0,0.0,0.0,0.0,0.0,0.0,0.0,0.0,0.0,0.0,0.0,0.0,0.0,0.0,0.0,0.0,0.0,0.0,0.0,0.0,0.0,0.0,0.0,0.0,0.0,0.0,0.0,0.0,0.0,0.0,0.0,0.0,0.0,0.0,0.0,0.0,0.0,0.0,0.0,0.0,0.0,0.0,0.0,0.0,0.0,0.0,-1.1185,-1.204,-1.2352,-1.2501,-1.2501,-1.2501,-1.2257,-1.1687,0.0,0.0,0.0,0.0,0.0,0.0,0.0,0.0,0.0,0.0,0.0,0.0,0.0,0.0,0.0,0.0,0.0,0.0,0.0,0.0,0.0,0.0,0.0,0.0,0.0,0.0,0.0,0.0,0.0,0.0,0.0,0.0,0.0,0.0,0.0,0.0,0.0,0.0,0.0,0.0,0.0,0.0,0.0,0.0,0.0,0.0,0.0,0.0,0.0,0.0,0.0,0.0,0.0,0.0,0.0,0.0,0.0,0.0,0.0,0.0,0.0,0.0,0.0,0.0,0.0,0.0,0.0,0.0,0.0,0.0,0.0,0.0,0.0,0.0,0.0,0.0,0.0,0.0,0.0,0.0,0.0,0.0,0.0,0.0,0.0,0.0,0.0,0.0,0.0,0.0,0.0,0.0,0.0,0.0,0.0,0.0,0.0,0.0,0.0,0.0,0.0,0.0,0.0,0.0,-1.1728,-1.2366,-1.2474,-1.2501,-1.2501,-1.2501,-1.2298,-1.183,0.0,0.0,0.0,0.0,0.0,0.0,0.0,0.0,0.0,0.0,0.0,0.0,0.0,0.0,0.0,0.0,0.0,0.0,0.0,0.0,0.0,0.0,0.0,0.0,0.0,0.0,0.0,0.0,0.0,0.0,0.0,0.0,0.0,0.0,0.0,0.0,0.0,0.0,0.0,0.0,0.0,0.0,0.0,0.0,0.0,0.0,0.0,0.0,0.0,0.0,0.0,0.0,0.0,0.0,0.0,0.0,0.0,0.0,0.0,0.0,0.0,0.0,0.0,0.0,0.0,0.0,0.0,0.0,0.0,0.0,0.0,0.0,0.0,0.0,0.0,0.0,0.0,0.0,0.0,0.0,0.0,0.0,0.0,0.0,0.0,0.0,0.0,0.0,0.0,0.0,0.0,0.0,0.0,0.0,0.0,0.0,0.0,0.0,0.0,0.0,0.0,0.0,0.0,-1.1789,-1.2454,-1.2725,-1.2752,-1.2752,-1.2752,-1.2752,-1.2522,-1.1993,-1.1898,0.0,0.0,0.0,0.0,0.0,0.0,0.0,0.0,0.0,0.0,0.0,0.0,0.0,0.0,0.0,0.0,0.0,0.0,0.0,0.0,0.0,0.0,0.0,0.0,0.0,0.0,0.0,0.0,0.0,0.0,0.0,0.0,0.0,0.0,0.0,0.0,0.0,0.0,0.0,0.0,0.0,0.0,0.0,0.0,0.0,0.0,0.0,0.0,0.0,0.0,0.0,0.0,0.0,0.0,0.0,0.0,0.0,0.0,0.0,0.0,0.0,0.0,0.0,0.0,0.0,0.0,0.0,0.0,0.0,0.0,0.0,0.0,0.0,0.0,0.0,0.0,0.0,0.0,0.0,0.0,0.0,0.0,0.0,0.0,0.0,0.0,0.0,0.0,0.0,0.0,0.0,0.0,0.0,0.0,0.0,0.0,0.0,0.0,0.0,0.0,0.0,0.0,-1.2298,-1.2807,-1.2942,-1.2963,-1.2963,-1.2963,-1.2963,-1.2705,-1.2101,-1.2026,0.0,0.0,0.0,0.0,0.0,0.0,0.0,0.0,0.0,0.0,0.0,0.0,0.0,0.0,0.0,0.0,0.0,0.0,0.0,0.0,0.0,0.0,0.0,0.0,0.0,0.0,0.0,0.0,0.0,0.0,0.0,0.0,0.0,0.0,0.0,0.0,0.0,0.0,0.0,0.0,0.0,0.0,0.0,0.0,0.0,0.0,0.0,0.0,0.0,0.0,0.0,0.0,0.0,0.0,0.0,0.0,0.0,0.0,0.0,0.0,0.0,0.0,0.0,0.0,0.0,0.0,0.0,0.0,0.0,0.0,0.0,0.0,0.0,0.0,0.0,0.0,0.0,0.0,0.0,0.0,0.0,0.0,0.0,0.0,0.0,0.0,0.0,0.0,0.0,0.0,0.0,0.0,0.0,0.0,0.0,0.0,0.0,0.0,0.0,0.0,0.0,0.0,-1.1999,-1.2338,-1.2901,-1.2963,-1.2963,-1.2963,-1.2963,-1.2705,-1.2101,-1.1925,0.0,0.0,0.0,0.0,0.0,0.0,0.0,0.0,0.0,0.0,0.0,0.0,0.0,0.0,0.0,0.0,0.0,0.0,0.0,0.0,0.0,0.0,0.0,0.0,0.0,0.0,0.0,0.0,0.0,0.0,0.0,0.0,0.0,0.0,0.0,0.0,0.0,0.0,0.0,0.0,0.0,0.0,0.0,0.0,0.0,0.0,0.0,0.0,0.0,0.0,0.0,0.0,0.0,0.0,0.0,0.0,0.0,0.0,0.0,0.0,0.0,0.0,0.0,0.0,0.0,0.0,0.0,0.0,0.0,0.0,0.0,0.0,0.0,0.0,0.0,0.0,0.0,0.0,0.0,0.0,0.0,0.0,0.0,0.0,0.0,0.0,0.0,0.0,0.0,0.0,0.0,0.0,0.0,0.0,0.0,0.0,0.0,0.0,0.0,0.0,0.0,0.0,-1.2515,-1.2983,0.0,-1.3234,-1.3234,-1.3234,-1.3234,-1.2935,-1.1934,0.0,0.0,0.0,0.0,0.0,0.0,0.0,0.0,0.0,0.0,0.0,0.0,0.0,0.0,0.0,0.0,0.0,0.0,0.0,0.0,0.0,0.0,0.0,0.0,0.0,0.0,0.0,0.0,0.0,0.0,0.0,0.0,0.0,0.0,0.0,0.0,0.0,0.0,0.0,0.0,0.0,0.0,0.0,0.0,0.0,0.0,0.0,0.0,0.0,0.0,0.0,0.0,0.0,0.0,0.0,0.0,0.0,0.0,0.0,0.0,0.0,0.0,0.0,0.0,0.0,0.0,0.0,0.0,0.0,0.0,0.0,0.0,0.0,0.0,0.0,0.0,0.0,0.0,0.0,0.0,0.0,0.0,0.0,0.0,0.0,0.0,0.0,0.0,0.0,0.0,0.0,0.0,0.0,0.0,0.0,0.0,0.0,0.0,0.0,0.0,0.0,0.0,-1.1788,-1.2364,-1.2899,0.0,-1.2733,-1.2899,-1.2899,-1.3065,-1.2573,-1.1802,0.0,0.0,0.0,0.0,0.0,0.0,0.0,0.0,0.0,0.0,0.0,0.0,0.0,0.0,0.0,0.0,0.0,0.0,0.0,0.0,0.0,0.0,0.0,0.0,0.0,0.0,0.0,0.0,0.0,0.0,0.0,0.0,0.0,0.0,0.0,0.0,0.0,0.0,0.0,0.0,0.0,0.0,0.0,0.0,0.0,0.0,0.0,0.0,0.0,0.0,0.0,0.0,0.0,0.0,0.0,0.0,0.0,0.0,0.0,0.0,0.0,0.0,0.0,0.0,0.0,0.0,0.0,0.0,0.0,0.0,0.0,0.0,0.0,0.0,0.0,0.0,0.0,0.0,0.0,0.0,0.0,0.0,0.0,0.0,0.0,0.0,0.0,0.0,0.0,0.0,0.0,0.0,0.0,0.0,0.0,0.0,0.0,0.0,0.0,0.0,0.0,0.0,-1.0895,-1.1568,-1.1736,-1.0737,-1.107,-1.157,-1.2069,-1.2069,-1.1888,0.0,0.0,0.0,0.0,0.0,0.0,0.0,0.0,0.0,0.0,0.0,0.0,0.0,0.0,0.0,0.0,0.0,0.0,0.0,0.0,0.0,0.0,0.0,0.0,0.0,0.0,0.0,0.0,0.0,0.0,0.0,0.0,0.0,0.0,0.0,0.0,0.0,0.0,0.0,0.0,0.0,0.0,0.0,0.0,0.0,0.0,0.0,0.0,0.0,0.0,0.0,0.0,0.0,0.0,0.0,0.0,0.0,0.0,0.0,0.0,0.0,0.0,0.0,0.0,0.0,0.0,0.0,0.0,0.0,0.0,0.0,0.0,0.0,0.0,0.0,0.0,0.0,0.0,0.0,0.0,0.0,0.0,0.0,0.0,0.0,0.0,0.0,0.0,0.0,0.0,0.0,0.0,0.0,0.0,0.0,0.0,0.0,0.0,0.0,0.0,0.0,0.0,0.0,-1.0733,-1.093,-1.107,-1.0737,-1.0904,-1.0904,-1.107,-1.107,-1.0912,-1.0306,0.0,0.0,0.0,0.0,0.0,0.0,0.0,0.0,0.0,0.0,0.0,0.0,0.0,0.0,0.0,0.0,0.0,0.0,0.0,0.0,0.0,0.0,0.0,0.0,0.0,0.0,0.0,0.0,0.0,0.0,0.0,0.0,0.0,0.0,0.0,0.0,0.0,0.0,0.0,0.0,0.0,0.0,0.0,0.0,0.0,0.0,0.0,0.0,0.0,0.0,0.0,0.0,0.0,0.0,0.0,0.0,0.0,0.0,0.0,0.0,0.0,0.0,0.0,0.0,0.0,0.0,0.0,0.0,0.0,0.0,0.0,0.0,0.0,0.0,0.0,0.0,0.0,0.0,0.0,0.0,0.0,0.0,0.0,0.0,0.0,0.0,0.0,0.0,0.0,0.0,0.0,0.0,0.0,0.0,0.0,0.0,0.0,0.0,0.0,0.0,0.0,0.0,-1.0283,-1.0131,-1.0085,-0.9795,-0.98,-1.0151,-1.0197,-1.033,-1.0071,-0.9671,0.0,0.0,0.0,0.0,0.0,0.0,0.0,0.0,0.0,0.0,0.0,0.0,0.0,0.0,0.0,0.0,0.0,0.0,0.0,0.0,0.0,0.0,0.0,0.0,0.0,0.0,0.0,0.0,0.0,0.0,0.0,0.0,0.0,0.0,0.0,0.0,0.0,0.0,0.0,0.0,0.0,0.0,0.0,0.0,0.0,0.0,0.0,0.0,0.0,0.0,0.0,0.0,0.0,0.0,0.0,0.0,0.0,0.0,0.0,0.0,0.0,0.0,0.0,0.0,0.0,0.0,0.0,0.0,0.0,0.0,0.0,0.0,0.0,0.0,0.0,0.0,0.0,0.0,0.0,0.0,0.0,0.0,0.0,0.0,0.0,0.0,0.0,0.0,0.0,0.0,0.0,0.0,0.0,0.0,0.0,0.0,0.0,0.0,0.0,0.0,0.0,0.0,-0.9424,-0.9366,-0.8964,-0.8203,-0.8552,-0.9099,-0.9534,-0.9459,-0.944,-0.9607,0.0,0.0,0.0,0.0,0.0,0.0,0.0,0.0,0.0,0.0,0.0,0.0,0.0,0.0,0.0,0.0,0.0,0.0,0.0,0.0,0.0,0.0,0.0,0.0,0.0,0.0,0.0,0.0,0.0,0.0,0.0,0.0,0.0,0.0,0.0,0.0,0.0,0.0,0.0,0.0,0.0,0.0,0.0,0.0,0.0,0.0,0.0,0.0,0.0,0.0,0.0,0.0,0.0,0.0,0.0,0.0,0.0,0.0,0.0,0.0,-0.7936,0.0,0.0,0.0,0.0,0.0,0.0,0.0,0.0,0.0,0.0,0.0,0.0,0.0,0.0,0.0,0.0,0.0,0.0,0.0,0.0,0.0,0.0,0.0,0.0,0.0,0.0,0.0,0.0,0.0,0.0,0.0,0.0,0.0,0.0,0.0,0.0,0.0,0.0,0.0,0.0,0.0,-0.8716,-0.8601,-0.8457,-0.8305,-0.8305,-0.8486,-0.8502,-0.849,-0.8531,-0.8738,-0.8644,0.0,0.0,0.0,0.0,0.0,0.0,0.0,0.0,0.0,0.0,0.0,0.0,0.0,0.0,0.0,0.0,0.0,0.0,0.0,0.0,0.0,0.0,0.0,0.0,0.0,0.0,0.0,0.0,0.0,0.0,0.0,0.0,0.0,0.0,0.0,0.0,0.0,0.0,0.0,0.0,0.0,0.0,0.0,0.0,0.0,0.0,0.0,0.0,0.0,0.0,0.0,0.0,0.0,0.0,0.0,0.0,0.0,0.0,0.0,0.0,-0.83,0.0,0.0,0.0,0.0,0.0,0.0,0.0,0.0,0.0,0.0,0.0,0.0,0.0,0.0,0.0,0.0,0.0,0.0,0.0,0.0,0.0,0.0,0.0,0.0,0.0,0.0,0.0,0.0,0.0,0.0,0.0,0.0,0.0,0.0,0.0,0.0,0.0,0.0,0.0,0.0,-0.8627,-0.8497,-0.835,-0.8395,-0.8399,-0.8419,-0.846,-0.8428,-0.8342,-0.8539,-0.8527,0.0,0.0,0.0,0.0,0.0,0.0,0.0,0.0,0.0,0.0,0.0,0.0,0.0,0.0,0.0,0.0,0.0,0.0,0.0,0.0,0.0,0.0,0.0,0.0,0.0,0.0,0.0,0.0,0.0,0.0,0.0,0.0,0.0,0.0,0.0,0.0,0.0,0.0,0.0,0.0,0.0,0.0,0.0,0.0,0.0,0.0,0.0,0.0,0.0,0.0,0.0,0.0,0.0,-0.8878,-0.876,-0.8162,-0.8562,-0.8566,-0.8039,-0.8136,-0.8697,-0.9407,-0.9241,0.0,0.0,0.0,0.0,0.0,0.0,0.0,0.0,0.0,0.0,0.0,0.0,0.0,0.0,0.0,0.0,0.0,0.0,0.0,0.0,0.0,0.0,-0.9167,-0.9443,-0.9547,-0.964,-1.0762,0.0,0.0,0.0,0.0,0.0,0.0,0.0,0.0,0.0,0.0,0.0,-0.8319,-0.8331,-0.8362,-0.844,-0.8448,-0.8477,-0.8554,-0.8493,-0.8448,-0.8448,-0.8522,-0.8501,0.0,0.0,0.0,0.0,0.0,0.0,0.0,0.0,0.0,0.0,0.0,0.0,0.0,0.0,0.0,0.0,0.0,0.0,0.0,0.0,0.0,0.0,0.0,0.0,0.0,0.0,0.0,0.0,0.0,0.0,0.0,0.0,-0.9181,-0.9072,0.0,0.0,0.0,0.0,0.0,0.0,0.0,0.0,0.0,0.0,0.0,0.0,0.0,-0.843,-0.8378,-0.8306,-0.827,-0.8288,-0.8875,-0.901,-0.8852,-0.678,-0.597,-0.579,-0.5799,0.0,-0.8814,-0.9201,0.0,0.0,0.0,0.0,0.0,0.0,0.0,0.0,0.0,0.0,0.0,0.0,0.0,0.0,0.0,0.0,0.0,0.0,0.0,0.0,0.0,0.0,-0.8276,-0.8314,-0.8612,-0.8993,-0.9535,-0.9316,-0.8989,-0.8987,-0.8435,-0.8004,0.0,0.0,0.0,0.0,0.0,0.0,-0.7681,-0.7999,-0.8338,-0.835,-0.8354,-0.8358,-0.837,-0.8358,-0.8354,-0.8354,-0.8383,-0.8465,-0.8223,-0.8787,0.0,0.0,0.0,0.0,0.0,0.0,0.0,0.0,0.0,0.0,0.0,0.0,0.0,0.0,0.0,0.0,0.0,0.0,0.0,0.0,0.0,0.0,0.0,0.0,0.0,0.0,0.0,0.0,0.0,-0.8639,-0.8419,-0.7986,-0.7856,-0.7778,0.0,0.0,0.0,0.0,0.0,0.0,0.0,0.0,0.0,-0.845,-0.878,-0.9051,-0.9101,-0.9387,-0.9562,-0.9637,-0.9953,-1.0034,-0.9888,-0.8914,-0.7241,-0.5382,-0.5468,-0.5933,-0.6755,-0.6647,-0.6788,-0.714,0.0,0.0,0.0,0.0,-0.9737,-0.9856,-0.9278,-0.9459,-0.9739,-0.9041,0.0,0.0,0.0,0.0,0.0,0.0,0.0,-0.7948,-0.838,-0.8242,-0.8089,-0.8191,-0.8294,-0.8571,-0.8683,-0.8639,-0.8821,-0.9562,-0.8544,-0.7684,-0.788,-0.7646,0.0,0.0,0.0,-0.7754,-0.7754,-0.8093,-0.8334,-0.8334,-0.8383,-0.8411,-0.8411,-0.846,-0.8464,-0.8415,-0.8448,-0.8395,-0.8223,-0.8552,-0.8624,0.0,0.0,0.0,0.0,0.0,0.0,0.0,0.0,0.0,0.0,0.0,0.0,0.0,0.0,0.0,0.0,0.0,0.0,0.0,0.0,0.0,0.0,0.0,0.0,0.0,0.0,0.0,0.0,-0.8135,-0.7851,-0.7198,-0.7248,-0.7353,0.0,0.0,0.0,0.0,0.0,0.0,-0.8721,-0.8799,-0.8844,-0.9,-0.9553,-0.9861,-0.9729,-1.0319,-1.0666,-1.0602,-0.891,-0.7909,-0.7929,-0.7929,-0.6586,-0.4062,-0.4062,-0.4068,-0.3899,-0.3444,-0.3576,-0.4091,-0.5039,-0.6261,-0.7906,-0.9589,-1.0252,-1.015,-0.9745,-0.9786,-0.9897,-0.8996,-0.8987,-0.8987,-0.8428,0.0,0.0,0.0,0.0,-0.7969,-0.8314,-0.8416,-0.8505,-0.8646,-0.849,-0.8461,-0.8415,-0.8335,-0.8499,-0.9692,-0.8779,-0.7863,-0.8189,-0.7838,0.0,-0.7268,0.0,-0.7934,-0.7934,-0.8166,-0.8334,-0.8334,-0.8395,-0.8436,-0.8436,-0.8497,-0.8509,-0.844,-0.846,-0.844,-0.837,-0.8456,-0.8544,-0.8579,0.0,0.0,0.0,0.0,0.0,0.0,0.0,0.0,0.0,0.0,0.0,0.0,0.0,0.0,0.0,0.0,0.0,0.0,0.0,0.0,0.0,0.0,0.0,0.0,0.0,0.0,0.0,0.0,0.0,-0.7369,-0.8166,0.0,0.0,0.0,0.0,-0.8293,-0.8537,-0.8844,-0.9366,-0.9382,-0.984,-1.0492,-1.052,-1.0585,-1.0699,-1.0753,-1.0786,-1.0624,-0.387,-0.0505,-0.0505,-0.0505,-0.0508,-0.0342,-0.0342,-0.0344,-0.0347,-0.017,-0.0168,-0.0335,-0.0328,-0.4552,-1.0572,-1.0966,-1.093,-1.0885,-1.0694,-1.0759,-1.0891,-1.0371,-0.9889,-0.9165,-0.8384,-0.8358,0.0,0.0,-0.8499,-0.8865,-0.9109,-0.9473,-0.9702,-0.9711,-0.9293,-0.891,-0.8999,-0.8382,-0.7852,-0.8194,-0.8237,-0.8101,-0.7936,0.0,-0.7823,-0.7546,-0.775,-0.7934,-0.7934,-0.8166,-0.8334,-0.8334,-0.8338,-0.8342,-0.8342,-0.8346,-0.8346,-0.8342,-0.8424,-0.8468,-0.8464,-0.8554,-0.855,-0.8448,-0.8633,0.0,0.0,0.0,0.0,0.0,0.0,0.0,0.0,0.0,0.0,0.0,0.0,0.0,0.0,0.0,0.0,0.0,0.0,0.0,0.0,0.0,0.0,0.0,0.0,0.0,0.0,0.0,0.0,-0.8127,-0.8435,0.0,-0.8421,-0.8967,-0.9151,-0.9071,-0.9615,-0.9956,-1.0201,-1.0276,-1.0378,-1.0666,-1.0672,-1.0693,-1.0737,-1.0829,-0.9685,-0.7304,-0.4618,-0.2232,0.0,0.0,0.0,0.0,0.0,0.0,0.0,0.0,0.0,0.0,0.0,-0.3055,-0.7808,-1.0111,-1.0997,-1.1086,-1.0567,-1.0475,-1.0579,-0.9716,-0.9492,-0.9583,-0.8964,-0.8791,-0.9,-0.9192,-0.9279,-0.9203,-0.9572,-0.9835,-0.9916,-0.9916,-0.9712,-0.9504,-0.9127,-0.8839,-0.8573,-0.8236,-0.8048,-0.8048,-0.7885,-0.8056,-0.8101,-0.7831,-0.8019,-0.8191,-0.8191,-0.8277,-0.8334,-0.8334,-0.8387,-0.8424,-0.8424,-0.8477,-0.8485,-0.8428,-0.8452,-0.8444,-0.8387,-0.8473,-0.8505,-0.8473,-0.8644,-0.8792,0.0,0.0,0.0,0.0,0.0,0.0,0.0,0.0,0.0,0.0,0.0,0.0,0.0,0.0,0.0,0.0,0.0,0.0,0.0,0.0,0.0,0.0,0.0,0.0,0.0,0.0,-0.844,-0.8692,-0.9002,-0.9246,-0.909,-0.9504,-0.9887,-0.9887,-1.0297,-1.0617,-1.0617,-1.0693,-1.0753,-1.0797,-1.0797,-1.0819,-1.0857,-1.0944,-0.9787,-0.722,-0.4841,-0.2256,0.0,0.0,0.0,0.0,0.0,0.0,0.0,0.0,0.0,0.0,0.0,-0.3127,-0.8003,-1.0304,-1.1183,-1.1172,-1.0857,-1.0693,-1.0349,-0.9651,-0.9481,-0.9306,-0.9311,-0.949,-0.9495,-0.8807,-0.9193,-0.9945,-1.0146,-1.0357,-1.0565,-1.0565,-1.0357,-1.0136,-0.9712,-0.9243,-0.8985,-0.8671,-0.8191,-0.804,-0.795,-0.8056,-0.8085,-0.7872,-0.7966,-0.8085,-0.8146,-0.826,-0.8334,-0.8507,-0.8673,-0.8786,-0.8786,-0.8728,-0.8707,-0.8558,-0.8448,-0.8395,-0.8424,-0.8395,-0.8366,-0.8334,-0.8305,-0.8509,-0.8752,0.0,0.0,0.0,0.0,0.0,0.0,0.0,0.0,0.0,0.0,0.0,0.0,0.0,0.0,0.0,0.0,0.0,0.0,0.0,0.0,0.0,0.0,0.0,-0.8418,-0.8887,-0.9274,-0.8934,-0.977,-1.0228,-0.99,-1.0329,-1.0563,-1.0563,-1.0672,-1.0742,-1.0742,-1.0732,-1.078,-1.09,-1.09,-1.096,-1.1079,-1.1118,-1.0972,-1.0988,-0.3821,-0.0174,0.0,0.0,0.0,0.0,0.0,0.0,0.0,0.0,0.0,0.0,0.0,-0.4529,-1.121,-1.1478,-1.1324,-1.1319,-1.1406,-1.1099,-1.0585,-1.0406,-0.9518,-0.8628,-0.9536,-1.0247,-1.0035,-0.7254,-0.8526,-1.0717,-1.0605,-1.1015,-1.1455,-1.1455,-1.1009,-1.058,-1.0575,-0.9559,-0.8698,-0.8981,-0.8692,-0.8264,-0.7999,-0.7885,-0.7799,-0.7709,-0.7623,0.0,-0.7811,-0.8138,-0.8523,-0.9043,-0.937,-0.9596,-0.9605,-0.9251,-0.8978,-0.8722,-0.8411,-0.8338,-0.8599,-0.8358,-0.817,-0.8081,-0.7815,-0.7852,-0.8199,0.0,0.0,0.0,0.0,0.0,0.0,0.0,0.0,0.0,0.0,0.0,0.0,0.0,0.0,0.0,0.0,0.0,0.0,0.0,0.0,0.0,0.0,-0.9575,-0.9273,-0.9487,-0.9794,-0.9935,-1.026,-1.0509,-1.0345,-1.0617,-1.0688,-1.0688,-1.0802,-1.0867,-1.0867,-1.0623,-1.0498,-1.053,-1.053,-1.0547,-1.0585,-1.1025,-1.1084,-1.1105,-0.9233,-0.534,0.0,0.0,0.0,0.0,0.0,0.0,0.0,0.0,0.0,0.0,0.0,-0.1245,-0.3911,-0.9477,-1.1465,-1.1417,-1.1541,-1.1461,-1.0779,-0.7889,-0.6809,-0.663,-0.7345,-0.933,-1.113,-1.0352,-1.0722,-1.1287,-1.1239,-1.1427,-1.1455,-1.1455,-1.1427,-1.1051,-1.0342,-0.9897,-0.9513,-0.8952,-0.8624,-0.8562,-0.8358,-0.8411,-0.8468,-0.8444,-0.8477,-0.8694,-0.91,-0.9199,-0.9445,-0.9988,-0.9532,-0.9554,-1.0137,-0.9491,-0.9255,-0.9364,-0.9282,-0.905,-0.8697,-0.8628,-0.8546,-0.846,-0.8535,-0.8605,0.0,0.0,0.0,0.0,0.0,0.0,0.0,0.0,0.0,0.0,0.0,0.0,0.0,0.0,0.0,0.0,0.0,0.0,0.0,0.0,0.0,0.0,-0.9655,-0.9992,-0.9993,-1.0062,-1.0237,-1.0503,-1.059,-1.0628,-1.0628,-1.0742,-1.0813,-1.0813,-1.0927,-1.0998,-1.0998,-1.0797,-1.0639,-1.0536,-1.0688,-1.0721,-1.0458,-1.1128,-1.1395,-1.1239,-1.1498,-0.7549,0.0,0.0,0.0,0.0,0.0,0.0,0.0,0.0,0.0,0.0,0.0,0.0,0.0,0.0,-0.7717,-0.9126,-0.9136,-1.0087,-1.1157,-0.8803,-0.5918,-0.3404,-0.3761,-0.7467,-1.1461,-1.1199,-1.1107,-1.1224,-1.1134,-1.1194,-1.1281,-1.1482,-1.1531,-1.1368,-1.0875,-1.0595,-1.0199,-0.9485,-0.9058,0.0,-0.8994,-0.8778,-0.8542,-0.864,-0.882,-0.9022,-0.9591,-0.9743,-1.003,-1.0574,-1.0388,-1.0273,-1.0825,-1.0325,0.0,0.0,0.0,-0.9217,-0.8628,-0.8587,0.0,0.0,0.0,-0.8424,-0.8535,-0.8597,0.0,0.0,-0.8878,-0.925,0.0,0.0,0.0,0.0,0.0,0.0,0.0,0.0,0.0,0.0,0.0,0.0,0.0,0.0,0.0,0.0,-0.9641,-0.9895,-1.0554,-1.0672,-1.0634,-1.0726,-1.0748,-1.0759,-1.0759,-1.0867,-1.0938,-1.0938,-1.1052,-1.1123,-1.1123,0.0,0.0,0.0,0.0,-1.0788,-1.0068,-1.0962,-1.152,-1.1536,-1.063,-0.6649,0.0,0.0,0.0,0.0,0.0,0.0,0.0,0.0,0.0,0.0,0.0,0.0,0.0,0.0,-0.2142,-0.501,-0.4991,0.0,0.0,-1.0262,-0.5567,0.0,0.0,-0.4753,-1.0169,-0.9894,-1.0216,-1.076,-1.064,-1.0944,-1.1134,-1.1558,-1.1656,-1.1688,-1.1792,-1.1204,-1.0722,-1.0302,-0.9775,-0.95,-0.9591,-0.8986,-0.8527,-0.8871,-0.8955,-0.9109,-0.9705,-1.0058,-1.048,-1.1019,-1.1356,0.0,-1.1452,-1.1222,-1.0564,-0.9955,-0.9441,-0.9061,-0.8534,-0.8444,-0.8285,-0.8044,-0.7962,-0.8032,-0.826,-0.826,-0.8379,-0.8599,-0.8871,-0.9314,0.0,0.0,0.0,0.0,0.0,0.0,0.0,0.0,0.0,0.0,0.0,0.0,0.0,0.0,0.0,-0.9977,-0.7868,-0.7334,-1.0268,-1.0677,-1.0688,-1.077,-1.0835,-1.0889,-1.0905,-1.1003,-1.1069,-1.1069,-1.1177,-1.1237,-1.1237,-1.0965,-1.0624,-1.0592,-1.0656,-0.8968,-0.5555,-0.9513,-1.1536,-1.1357,-0.5209,0.0,0.0,0.0,0.0,0.0,0.0,0.0,0.0,0.0,0.0,0.0,0.0,0.0,0.0,0.0,-0.0527,-0.1073,-0.1046,-0.1581,-0.2154,-0.2154,-0.1257,0.0,0.0,-0.1071,0.0,-0.5725,-0.8409,-1.0565,-1.0865,-1.1283,-1.1502,-1.1764,-1.1786,-1.1603,-1.1253,-1.1206,-1.0841,-1.044,-1.0421,-1.024,-1.0385,-0.9901,-0.96,-1.0109,-1.0156,-1.0577,-1.0966,-1.1126,-1.1615,-1.1994,-1.171,-1.1579,-1.2245,-1.1647,-1.0971,-1.0544,-0.9585,-0.909,-0.8905,-0.8815,-0.8742,-0.8693,-0.8673,-0.8652,-0.8632,-0.8632,-0.8624,-0.8607,-0.8694,-0.8858,0.0,0.0,0.0,0.0,0.0,0.0,0.0,0.0,0.0,0.0,0.0,-0.9412,0.0,0.0,-0.8016,-0.943,-0.7256,-0.669,-1.0192,-0.909,-0.8757,-1.054,-0.9238,-0.8955,-1.0875,-1.115,-1.1036,-1.1199,-1.1313,-1.1378,-1.1378,-1.1204,-1.1036,-1.1047,-1.1052,-0.9673,-0.6785,-0.6168,-0.5747,-0.5747,-0.1795,0.0,0.0,0.0,0.0,0.0,0.0,0.0,0.0,0.0,0.0,0.0,0.0,0.0,0.0,0.0,0.0,0.0,0.0,0.0,0.0,0.0,0.0,0.0,0.0,0.0,-0.0356,-0.2325,-0.3896,-0.5627,-0.7363,-0.9581,-1.1283,-1.1678,-1.1917,-1.1742,-1.1605,-1.1615,-1.1465,-1.1202,-1.1037,-1.1072,-1.118,-1.096,-1.0906,-1.1042,-1.1126,-1.1387,-1.1968,-1.2021,-1.2058,-1.2444,-1.2144,-1.2144,-1.252,-1.1492,-1.0838,-1.0422,-0.953,-0.9077,-0.9077,-0.8987,-0.8938,-0.8938,-0.8893,-0.8848,-0.8803,-0.8803,-0.8758,-0.8673,-0.8673,-0.8828,0.0,0.0,0.0,0.0,0.0,0.0,0.0,0.0,-0.9361,-0.8678,-0.8396,-0.8441,-0.9099,-0.7342,-0.6267,-0.7382,-0.5802,-0.5373,-0.8236,-0.6759,-0.6775,-1.0194,-0.763,-0.6268,-0.8726,-0.9693,-1.0102,-1.0087,-1.1067,-1.1487,-1.1487,-1.0763,-1.0646,-1.1446,-1.1561,-1.0141,-0.7443,-0.2481,0.0,0.0,0.0,0.0,0.0,0.0,0.0,0.0,0.0,0.0,0.0,0.0,0.0,0.0,0.0,0.0,0.0,0.0,0.0,0.0,0.0,0.0,0.0,0.0,0.0,0.0,0.0,0.0,0.0,0.0,0.0,-0.0519,-0.3199,-0.627,-0.905,-1.0483,-1.1324,-1.2112,-1.2221,-1.2248,-1.2085,-1.1797,-1.1818,-1.1849,-1.1932,-1.1968,-1.1947,-1.1828,-1.1885,-1.2137,-1.2536,-1.2553,-1.2569,-1.2569,-1.2591,-1.2596,-1.2569,-1.1508,-1.0675,-1.0271,-0.9619,-0.9187,-0.9171,-0.9101,-0.9052,-0.9036,-0.8962,-0.8913,-0.8897,-0.8897,-0.8848,-0.8758,-0.8758,-0.8705,-0.9487,-0.855,-0.8193,-0.9425,-0.9178,-0.8942,0.0,0.0,-0.9768,-0.9791,-0.7673,-0.6839,-0.9888,-1.0314,-0.7993,-0.2042,-0.0859,-0.0692,-0.1215,-0.368,-0.6712,-1.0264,-0.7578,-0.422,-0.1583,-0.4263,-0.6255,-0.6255,-0.9505,-1.1509,-1.1509,-0.8246,-0.7877,-1.1476,-1.1514,-0.8079,-0.1072,-0.0358,0.0,0.0,0.0,0.0,0.0,0.0,0.0,0.0,0.0,0.0,0.0,0.0,0.0,0.0,0.0,0.0,0.0,0.0,0.0,0.0,0.0,0.0,0.0,0.0,0.0,0.0,0.0,0.0,0.0,0.0,0.0,-0.0,-0.0376,-0.0943,-0.2082,-0.5942,-0.9628,-1.2373,-1.2299,-1.2326,-1.2326,-1.2342,-1.2358,-1.2369,-1.2558,-1.2465,-1.2492,-1.2342,-1.2331,-1.2536,-1.2536,-1.2623,-1.2689,-1.2689,-1.2781,-1.2803,-1.2694,-1.1688,-1.1049,-1.0954,-0.9967,-0.9342,-0.9269,-0.9256,-0.9212,-0.913,-0.9118,-0.9073,-0.8991,-0.8991,-0.8946,-0.8856,-0.8856,-0.8766,-0.9682,-0.9308,-0.9226,0.0,-0.9908,-0.9879,-1.0212,-1.0245,-1.0393,-1.0436,-0.9397,-0.7654,-0.4932,-0.4416,-0.3576,0.0,0.0,0.0,0.0,-0.124,-0.2855,-0.4285,-0.3173,-0.1748,-0.0175,-0.142,-0.2317,-0.2462,-0.3911,-0.6815,-1.1341,-0.989,-0.7724,-0.4848,-0.4848,-0.324,-0.0,0.0,0.0,0.0,0.0,0.0,0.0,0.0,0.0,0.0,0.0,0.0,0.0,0.0,0.0,0.0,0.0,0.0,0.0,0.0,0.0,0.0,0.0,0.0,0.0,0.0,0.0,0.0,0.0,0.0,0.0,0.0,0.0,0.0,0.0,0.0,-0.0388,-0.2139,-0.3892,-0.6432,-1.1378,-1.2385,-1.1803,-0.9276,-0.8697,-0.8913,-0.8952,-1.1012,-1.1838,-0.936,-1.1149,-1.2754,-1.2743,-1.2781,-1.2814,-1.2814,-1.2857,-1.2668,-1.2416,-1.1951,-1.1501,-1.1059,-1.0219,-0.9781,-0.9743,-0.9549,-0.9338,-0.9297,-0.9248,-0.9203,-0.9167,-0.9114,-0.904,-0.895,-0.895,-0.8881,-0.9965,-1.0048,0.0,-1.0479,-1.0498,-1.0469,-1.0618,-1.0656,-1.0677,-1.0736,-0.9085,-0.6194,-0.1032,0.0,0.0,0.0,0.0,0.0,0.0,0.0,0.0,0.0,0.0,0.0,0.0,0.0,0.0,0.0,0.0,-0.251,-0.809,-0.8273,-0.5755,-0.018,0.0,0.0,0.0,0.0,0.0,0.0,0.0,0.0,0.0,0.0,0.0,0.0,0.0,0.0,0.0,0.0,0.0,0.0,0.0,0.0,0.0,0.0,0.0,0.0,0.0,0.0,0.0,0.0,0.0,0.0,0.0,0.0,0.0,0.0,0.0,0.0,0.0,0.0,0.0,0.0,0.0,-0.1575,-0.7705,-1.0895,-1.1723,-0.8581,-0.5986,-0.4397,-0.4624,-0.9303,-1.1368,-0.7074,-1.0142,-1.2999,-1.2912,-1.2928,-1.296,-1.2993,-1.2988,-1.277,-1.2336,-1.2258,-1.1798,-1.1367,-1.09,-1.0451,-1.0424,-0.9836,-0.9628,-0.9603,-0.9346,-0.9314,-0.9314,-0.9248,-0.9171,-0.9085,-0.9085,-0.9032,0.0,0.0,-0.965,-1.0708,-1.0484,-1.0206,-1.0519,-1.0641,-1.0683,-1.0625,-0.5217,-0.0174,-0.0,0.0,0.0,0.0,0.0,0.0,0.0,0.0,0.0,0.0,0.0,0.0,0.0,0.0,0.0,0.0,0.0,-0.018,-0.0359,-0.0359,-0.018,-0.0,0.0,0.0,0.0,0.0,0.0,0.0,0.0,0.0,0.0,0.0,0.0,0.0,0.0,0.0,0.0,0.0,0.0,0.0,0.0,0.0,0.0,0.0,0.0,0.0,0.0,0.0,0.0,0.0,0.0,0.0,0.0,0.0,0.0,0.0,0.0,0.0,0.0,0.0,0.0,0.0,0.0,-0.0,-0.0402,-0.7062,-1.277,-1.277,-0.5858,-0.0202,-0.0202,-0.7334,-1.1506,-0.7146,-1.0107,-1.2816,-1.2971,-1.3031,-1.3134,-1.3048,-1.3243,-1.3183,-1.3075,-1.2658,-1.2201,-1.2089,-1.1478,-1.123,-1.1125,-1.0528,-1.0286,-1.0188,-0.9599,-0.9403,-0.9403,-0.9399,-0.9354,-0.9273,-0.9273,-0.9224,0.0,0.0,-1.1083,-1.1063,-1.1106,-1.0942,-1.0704,-1.0767,-0.938,-0.452,-0.173,0.0,0.0,0.0,0.0,0.0,0.0,0.0,0.0,0.0,0.0,0.0,0.0,0.0,0.0,0.0,0.0,0.0,0.0,0.0,0.0,0.0,0.0,0.0,0.0,0.0,0.0,0.0,0.0,0.0,0.0,0.0,0.0,0.0,0.0,0.0,0.0,0.0,0.0,0.0,0.0,0.0,0.0,0.0,0.0,0.0,0.0,0.0,0.0,0.0,0.0,0.0,0.0,0.0,0.0,0.0,0.0,0.0,0.0,0.0,0.0,0.0,0.0,0.0,0.0,0.0,0.0,-0.2221,-0.4251,-0.4278,-0.2038,0.0,0.0,-0.4747,-0.704,-0.289,-0.5792,-0.8685,-0.8628,-0.8643,-0.991,-1.2874,-1.3281,-1.3254,-1.3216,-1.2989,-1.2957,-1.292,-1.2237,-1.1979,-1.1944,-1.1268,-1.0817,-1.0383,-1.0119,-0.9892,-0.9497,-0.9436,-0.9391,-0.9367,-0.9367,-0.9346,0.0,-1.156,-1.1702,-1.154,-1.1413,-1.0537,-0.7512,-0.6832,-0.5608,-0.0879,0.0,0.0,0.0,0.0,0.0,0.0,0.0,0.0,0.0,0.0,0.0,0.0,0.0,0.0,0.0,0.0,0.0,0.0,0.0,0.0,0.0,0.0,0.0,0.0,0.0,0.0,0.0,0.0,0.0,0.0,0.0,0.0,0.0,0.0,0.0,0.0,0.0,0.0,0.0,0.0,0.0,0.0,0.0,0.0,0.0,0.0,0.0,0.0,0.0,0.0,0.0,0.0,0.0,0.0,0.0,0.0,0.0,0.0,0.0,0.0,0.0,0.0,0.0,0.0,0.0,0.0,0.0,0.0,0.0,0.0,0.0,0.0,0.0,-0.2291,-0.3135,-0.0419,-0.2302,-0.4176,-0.4164,-0.4159,-0.5207,-0.816,-1.0045,-1.1711,-1.3357,-1.3341,-1.3308,-1.3265,-1.2784,-1.2517,-1.2471,-1.2196,-1.1531,-1.1082,-1.0618,-1.0188,-0.979,-0.9534,-0.9489,-0.9457,-0.9457,-0.944,-1.2088,-1.1788,-1.1357,-1.175,-1.1345,-0.8926,-0.1588,0.0,0.0,0.0,0.0,0.0,0.0,0.0,0.0,0.0,0.0,0.0,0.0,0.0,0.0,0.0,0.0,0.0,0.0,0.0,0.0,0.0,0.0,0.0,0.0,0.0,0.0,0.0,0.0,0.0,0.0,0.0,0.0,0.0,0.0,0.0,0.0,0.0,0.0,0.0,0.0,0.0,0.0,0.0,0.0,0.0,0.0,0.0,0.0,0.0,0.0,0.0,0.0,0.0,0.0,0.0,0.0,0.0,0.0,0.0,0.0,0.0,0.0,0.0,0.0,0.0,0.0,0.0,0.0,0.0,0.0,0.0,0.0,0.0,0.0,0.0,0.0,0.0,0.0,0.0,0.0,0.0,0.0,0.0,0.0,0.0,-0.3826,-0.8272,-1.2445,-1.3074,-1.3236,-1.2911,-1.29,-1.2837,-1.2502,-1.2705,-1.2642,-1.2099,-1.1096,-1.0489,-1.0485,-0.9882,-0.9636,-0.955,-0.955,-0.9501,-1.1994,-1.2111,-1.1715,-0.8743,-1.0394,-1.0445,-0.1962,0.0,0.0,0.0,0.0,0.0,0.0,0.0,0.0,0.0,0.0,0.0,0.0,0.0,0.0,0.0,0.0,0.0,0.0,0.0,0.0,0.0,0.0,0.0,0.0,0.0,0.0,0.0,0.0,0.0,0.0,0.0,0.0,0.0,0.0,0.0,0.0,0.0,0.0,0.0,0.0,0.0,0.0,0.0,0.0,0.0,0.0,0.0,0.0,0.0,0.0,0.0,0.0,0.0,0.0,0.0,0.0,0.0,0.0,0.0,0.0,0.0,0.0,0.0,0.0,0.0,0.0,0.0,0.0,0.0,0.0,0.0,0.0,0.0,0.0,0.0,0.0,0.0,0.0,0.0,0.0,0.0,0.0,0.0,0.0,0.0,-0.1064,-0.2124,-0.3392,-0.6573,-0.8474,-0.8457,-0.8402,-0.8361,-0.8338,-1.1207,-1.2784,-1.2669,-1.245,-1.1585,-0.989,-1.0083,-1.007,-0.9644,-0.9644,-0.9632,-1.1653,-1.2507,-1.2661,-1.0475,-0.8723,-0.6219,-0.1233,0.0,0.0,0.0,0.0,0.0,0.0,0.0,0.0,0.0,0.0,0.0,0.0,0.0,0.0,0.0,0.0,0.0,0.0,0.0,0.0,0.0,0.0,0.0,0.0,0.0,0.0,0.0,0.0,0.0,0.0,0.0,0.0,0.0,0.0,0.0,0.0,0.0,0.0,0.0,0.0,0.0,0.0,0.0,0.0,0.0,0.0,0.0,0.0,0.0,0.0,0.0,0.0,0.0,0.0,0.0,0.0,0.0,0.0,0.0,0.0,0.0,0.0,0.0,0.0,0.0,0.0,0.0,0.0,0.0,0.0,0.0,0.0,0.0,0.0,0.0,0.0,0.0,0.0,0.0,0.0,0.0,0.0,0.0,0.0,0.0,0.0,0.0,0.0,-0.2341,-0.3829,-0.3829,-0.3812,-0.3794,-0.3776,-0.6058,-0.8097,-1.009,-1.0086,-1.0449,-1.1175,-1.0555,-1.0125,-1.0083,-0.9882,-0.9681,-0.9764,-1.1863,-1.3205,-1.3872,-0.6828,0.0,0.0,0.0,0.0,0.0,0.0,0.0,0.0,0.0,0.0,0.0,0.0,0.0,0.0,0.0,0.0,0.0,0.0,0.0,0.0,0.0,0.0,0.0,0.0,0.0,0.0,0.0,0.0,0.0,0.0,0.0,0.0,0.0,0.0,0.0,0.0,0.0,0.0,0.0,0.0,0.0,0.0,0.0,0.0,0.0,0.0,0.0,0.0,0.0,0.0,0.0,0.0,0.0,0.0,0.0,0.0,0.0,0.0,0.0,0.0,0.0,0.0,0.0,0.0,0.0,0.0,0.0,0.0,0.0,0.0,0.0,0.0,0.0,0.0,0.0,0.0,0.0,0.0,0.0,0.0,0.0,0.0,0.0,0.0,0.0,0.0,0.0,0.0,0.0,0.0,0.0,0.0,0.0,0.0,0.0,0.0,0.0,-0.1674,-0.5392,-0.56,-0.7438,-1.1274,-1.0444,-1.0189,-1.0301,-1.0087,-0.9681,-0.2955,-0.6885,-1.1872,-1.1894,-0.5929,0.0,0.0,0.0,0.0,0.0,0.0,0.0,0.0,0.0,0.0,0.0,0.0,0.0,0.0,0.0,0.0,0.0,0.0,0.0,0.0,0.0,0.0,0.0,0.0,0.0,0.0,0.0,0.0,0.0,0.0,0.0,0.0,0.0,0.0,0.0,0.0,0.0,0.0,0.0,0.0,0.0,0.0,0.0,0.0,0.0,0.0,0.0,0.0,0.0,0.0,0.0,0.0,0.0,0.0,0.0,0.0,0.0,0.0,0.0,0.0,0.0,0.0,0.0,0.0,0.0,0.0,0.0,0.0,0.0,0.0,0.0,0.0,0.0,0.0,0.0,0.0,0.0,0.0,0.0,0.0,0.0,0.0,0.0,0.0,0.0,0.0,0.0,0.0,0.0,0.0,0.0,0.0,0.0,0.0,0.0,0.0,0.0,-0.0423,-0.1049,-0.1048,-0.1459,-0.2273,-0.903,-1.1454,-0.98,-1.0121,-1.0083,-0.0523,-0.2648,-0.5567,-0.5567,-0.2693,0.0,0.0,0.0,0.0,0.0,0.0,0.0,0.0,0.0,0.0,0.0,0.0,0.0,0.0,0.0,0.0,0.0,0.0,0.0,0.0,0.0,0.0,0.0,0.0,0.0,0.0,0.0,0.0,0.0,0.0,0.0,0.0,0.0,0.0,0.0,0.0,0.0,0.0,0.0,0.0,0.0,0.0,0.0,0.0,0.0,0.0,0.0,0.0,0.0,0.0,0.0,0.0,0.0,0.0,0.0,0.0,0.0,0.0,0.0,0.0,0.0,0.0,0.0,0.0,0.0,0.0,0.0,0.0,0.0,0.0,0.0,0.0,0.0,0.0,0.0,0.0,0.0,0.0,0.0,0.0,0.0,0.0,0.0,0.0,0.0,0.0,0.0,0.0,0.0,0.0,0.0,0.0,0.0,0.0,0.0,0.0,0.0,0.0,0.0,0.0,0.0,-0.0,-0.6646,-1.0351,-1.1544,-1.1222,-1.0762,0.0,0.0,0.0,0.0,0.0,0.0,0.0,0.0,0.0,0.0,0.0,0.0,0.0,0.0,0.0,0.0,0.0,0.0,0.0,0.0,0.0,0.0,0.0,0.0,0.0,0.0,0.0,0.0,0.0,0.0,0.0,0.0,0.0,0.0,0.0,0.0,0.0,0.0,0.0,0.0,0.0,0.0,0.0,0.0,0.0,0.0,0.0,0.0,0.0,0.0,0.0,0.0,0.0,0.0,0.0,0.0,0.0,0.0,0.0,0.0,0.0,0.0,0.0,0.0,0.0,0.0,0.0,0.0,0.0,0.0,0.0,0.0,0.0,0.0,0.0,0.0,0.0,0.0,0.0,0.0,0.0,0.0,0.0,0.0,0.0,0.0,0.0,0.0,0.0,0.0,0.0,0.0,0.0,0.0,0.0,0.0,0.0,0.0,0.0,0.0,0.0,0.0,0.0,0.0,0.0,0.0,-0.0,-0.3572,-0.7954,-1.3134,-1.2369,-1.1487,0.0,0.0,0.0,0.0,0.0,0.0,0.0,0.0,0.0,0.0,0.0,0.0,0.0,0.0,0.0,0.0,0.0,0.0,0.0,0.0,0.0,0.0,0.0,0.0,0.0,0.0,0.0,0.0,0.0,0.0,0.0,0.0,0.0,0.0,0.0,0.0,0.0,0.0,0.0,0.0,0.0,0.0,0.0,0.0,0.0,0.0,0.0,0.0,0.0,0.0,0.0,0.0,0.0,0.0,0.0,0.0,0.0,0.0,0.0,0.0,0.0,0.0,0.0,0.0,0.0,0.0,0.0,0.0,0.0,0.0,0.0,0.0,0.0,0.0,0.0,0.0,0.0,0.0,0.0,0.0,0.0,0.0,0.0,0.0,0.0,0.0,0.0,0.0,0.0,0.0,0.0,0.0,0.0,0.0,0.0,0.0,0.0,0.0,0.0,0.0,0.0,0.0,0.0,0.0,0.0,0.0,-0.0,-0.0422,-0.5039,-1.351,-1.3352,-1.2858,0.0,0.0,0.0,0.0,0.0,0.0,0.0,0.0,0.0,0.0,0.0,0.0,0.0,0.0,0.0,0.0,0.0,0.0,0.0,0.0,0.0,0.0,0.0,0.0,0.0,0.0,0.0,0.0,0.0,0.0,0.0,0.0,0.0,0.0,0.0,0.0,0.0,0.0,0.0,0.0,0.0,0.0,0.0,0.0,0.0,0.0,0.0,0.0,0.0,0.0,0.0,0.0,0.0,0.0,0.0,0.0,0.0,0.0,0.0,0.0,0.0,0.0,0.0,0.0,0.0,0.0,0.0,0.0,0.0,0.0,0.0,0.0,0.0,0.0,0.0,0.0,0.0,0.0,0.0,0.0,0.0,0.0,0.0,0.0,0.0,0.0,0.0,0.0,0.0,0.0,0.0,0.0,0.0,0.0,0.0,0.0,0.0,0.0,0.0,0.0,0.0,0.0,0.0,0.0,0.0,0.0,0.0,0.0,-0.3176,-0.9553,-0.9449,-1.067,0.0,0.0,0.0,0.0,0.0,0.0,0.0,0.0,0.0,0.0,0.0,0.0,0.0,0.0,0.0,0.0,0.0,0.0,0.0,0.0,0.0,0.0,0.0,0.0,0.0,0.0,0.0,0.0,0.0,0.0,0.0,0.0,0.0,0.0,0.0,0.0,0.0,0.0,0.0,0.0,0.0,0.0,0.0,0.0,0.0,0.0,0.0,0.0,0.0,0.0,0.0,0.0,0.0,0.0,0.0,0.0,0.0,0.0,0.0,0.0,0.0,0.0,0.0,0.0,0.0,0.0,0.0,0.0,0.0,0.0,0.0,0.0,0.0,0.0,0.0,0.0,0.0,0.0,0.0,0.0,0.0,0.0,0.0,0.0,0.0,0.0,0.0,0.0,0.0,0.0,0.0,0.0,0.0,0.0,0.0,0.0,0.0,0.0,0.0,0.0,0.0,0.0,0.0,0.0,0.0,0.0,0.0,0.0,-0.1703,-0.4685,-0.4861,-0.7168,0.0,0.0,0.0,0.0,0.0,0.0,0.0,0.0,0.0,0.0,0.0,0.0,0.0,0.0,0.0,0.0,0.0,0.0,0.0,0.0,0.0,0.0,0.0,0.0,0.0,0.0,0.0,0.0,0.0,0.0,0.0,0.0,0.0,0.0,0.0,0.0,0.0,0.0,0.0,0.0,0.0,0.0,0.0,0.0,0.0,0.0,0.0,0.0,0.0,0.0,0.0,0.0,0.0,0.0,0.0,0.0,0.0,0.0,0.0,0.0,0.0,0.0,0.0,0.0,0.0,0.0,0.0,0.0,0.0,0.0,0.0,0.0,0.0,0.0,0.0,0.0,0.0,0.0,0.0,0.0,0.0,0.0,0.0,0.0,0.0,0.0,0.0,0.0,0.0,0.0,0.0,0.0,0.0,0.0,0.0,0.0,0.0,0.0,0.0,0.0,0.0,0.0,0.0,0.0,0.0,0.0,0.0,0.0,-0.0,-0.0,-0.0,-0.2551,0.0,0.0,0.0,0.0,0.0,0.0,0.0,0.0,0.0,0.0,0.0,0.0,0.0,0.0,0.0,0.0,0.0,0.0,0.0,0.0,0.0,0.0,0.0,0.0,0.0,0.0,0.0,0.0,0.0,0.0,0.0,0.0,0.0,0.0,0.0,0.0,0.0,0.0,0.0,0.0,0.0,0.0,0.0,0.0,0.0,0.0,0.0,0.0,0.0,0.0,0.0,0.0,0.0,0.0,0.0,0.0,0.0,0.0,0.0,0.0,0.0,0.0,0.0,0.0,0.0,0.0,0.0,0.0,0.0,0.0,0.0,0.0,0.0,0.0,0.0,0.0,0.0,0.0,0.0,0.0,0.0,0.0,0.0,0.0,0.0,0.0,0.0,0.0,0.0,0.0,0.0,0.0,0.0,0.0,0.0,0.0,0.0,0.0,0.0,0.0,0.0,0.0,0.0,0.0,0.0,0.0,0.0,0.0,0.0,0.0,0.0,-0.0852,0.0,0.0,0.0,0.0,0.0,0.0,0.0,0.0,0.0,0.0,0.0,0.0,0.0,0.0,0.0,0.0,0.0,0.0,0.0,0.0,0.0,0.0,0.0,0.0,0.0,0.0,0.0,0.0,0.0,0.0,0.0,0.0,0.0,0.0,0.0,0.0,0.0,0.0,0.0,0.0,0.0,0.0,0.0,0.0,0.0,0.0,0.0,0.0,0.0,0.0,0.0,0.0,0.0,0.0,0.0,0.0,0.0,0.0,0.0,0.0,0.0,0.0,0.0,0.0,0.0,0.0,0.0,0.0,0.0,0.0,0.0,0.0,0.0,0.0,0.0,0.0,0.0,0.0,0.0,0.0,0.0,0.0,0.0,0.0,0.0,0.0,0.0,0.0,0.0,0.0,0.0,0.0,0.0,0.0,0.0,0.0,0.0,0.0,0.0,0.0,0.0,0.0,0.0,0.0,0.0,0.0,0.0,0.0,0.0,0.0,0.0,0.0,0.0,0.0,0.0,0.0,0.0,0.0,0.0,0.0,0.0,0.0,0.0,0.0,0.0,0.0,0.0,0.0,0.0,0.0,0.0,0.0,0.0,0.0,0.0,0.0,0.0,0.0,0.0,0.0,0.0,0.0,0.0,0.0,0.0,0.0,0.0,0.0,0.0,0.0,0.0,0.0,0.0,0.0,0.0,0.0,0.0,0.0,0.0,0.0,0.0,0.0,0.0,0.0,0.0,0.0,0.0,0.0,0.0,0.0,0.0,0.0,0.0,0.0,0.0,0.0,0.0,0.0,0.0,0.0,0.0,0.0,0.0,0.0,0.0,0.0,0.0,0.0,0.0,0.0,0.0,0.0,0.0,0.0,0.0,0.0,0.0,0.0,0.0,0.0,0.0,0.0,0.0,0.0,0.0,0.0,0.0,0.0,0.0,0.0,0.0,0.0,0.0,0.0,0.0,0.0,0.0,0.0,0.0,0.0,0.0,0.0,0.0,0.0,0.0,0.0,0.0,0.0,0.0,0.0,0.0,0.0,0.0,0.0,0.0,0.0,0.0,0.0,0.0,0.0,0.0,0.0,0.0,0.0,0.0,0.0,0.0,0.0,0.0,0.0,0.0,0.0,0.0,0.0,0.0,0.0,0.0,0.0,0.0,0.0,0.0,0.0,0.0,0.0,0.0,0.0,0.0,0.0,0.0,0.0,0.0,0.0,0.0,0.0,0.0,0.0,0.0,0.0,0.0,0.0,0.0,0.0,0.0,0.0,0.0,0.0,0.0,0.0,0.0,0.0,0.0,0.0,0.0,0.0,0.0,0.0,0.0,0.0,0.0,0.0,0.0,0.0,0.0,0.0,0.0,0.0,0.0,0.0,0.0,0.0,0.0,0.0,0.0,0.0,0.0,0.0,0.0,0.0,0.0,0.0,0.0,0.0,0.0,0.0,0.0,0.0,0.0,0.0,0.0,0.0,0.0,0.0,0.0,0.0,0.0,0.0,0.0,0.0,0.0,0.0,0.0,0.0,0.0,0.0,0.0,0.0,0.0,0.0,0.0,0.0,0.0,0.0,0.0,0.0,0.0,0.0,0.0,0.0,0.0,0.0,0.0,0.0,0.0,0.0,0.0,0.0,0.0,0.0,0.0,0.0,0.0,0.0,0.0,0.0,0.0,0.0,0.0,0.0,0.0,0.0,0.0,0.0,0.0,0.0,0.0,0.0,0.0,0.0,0.0,0.0,0.0,0.0,0.0,0.0,0.0,0.0,0.0,0.0,0.0,0.0,0.0,0.0,0.0,0.0,0.0,0.0,0.0,0.0,0.0,0.0,0.0,0.0,0.0,0.0,0.0,0.0,0.0,0.0,0.0,0.0,0.0,0.0,0.0,0.0,0.0,0.0,0.0,0.0,0.0,0.0,0.0,0.0,0.0,0.0,0.0,0.0,0.0,0.0,0.0,0.0,0.0,0.0,0.0,0.0,0.0,0.0,0.0,0.0,0.0,0.0,0.0,0.0,0.0,0.0,0.0,0.0,0.0,0.0,0.0,0.0,0.0,0.0,0.0,0.0,0.0,0.0,0.0,0.0,0.0,0.0,0.0,0.0,0.0,0.0,0.0,0.0,0.0,0.0,0.0,0.0,0.0,0.0,0.0,0.0,0.0,0.0,0.0,0.0,0.0,0.0,0.0,0.0,0.0,0.0,0.0,0.0,0.0,0.0,0.0,0.0,0.0,0.0,0.0,0.0,0.0,0.0,0.0,0.0,0.0,0.0,0.0,0.0,0.0,0.0,0.0,0.0,0.0,0.0,0.0,0.0,0.0,0.0,0.0,0.0,0.0,0.0,0.0,0.0,0.0,0.0,0.0,0.0,0.0,0.0,0.0,0.0,0.0,0.0,0.0,0.0,0.0,0.0,0.0,0.0,0.0,0.0,0.0,0.0,0.0,0.0,0.0,0.0,0.0,0.0,0.0,0.0,0.0,0.0,0.0,0.0,0.0,0.0,0.0,0.0,0.0,0.0,0.0,0.0,0.0,0.0,0.0,0.0,0.0,0.0,0.0,0.0,0.0,0.0,0.0,0.0,0.0,0.0,0.0,0.0,0.0,0.0,0.0,0.0,0.0,0.0,0.0,0.0,0.0,0.0,0.0,0.0,0.0,0.0,0.0,0.0,0.0,0.0,0.0,0.0,0.0,0.0,0.0,0.0,0.0,0.0,0.0,0.0,0.0,0.0,0.0,0.0,0.0,0.0,0.0,0.0,0.0,0.0,0.0,0.0,0.0,0.0,0.0,0.0,0.0,0.0,0.0,0.0,0.0,0.0,0.0,0.0,0.0,0.0,0.0,0.0,0.0,0.0,0.0,0.0,0.0,0.0,0.0,0.0,0.0,0.0,0.0,0.0,0.0,0.0,0.0,0.0,0.0,0.0,0.0,0.0,0.0,0.0,0.0,0.0,0.0,0.0,0.0,0.0,0.0,0.0,0.0,0.0,0.0,0.0,0.0,0.0,0.0,0.0,0.0,0.0,0.0,0.0,0.0,0.0,0.0,0.0,0.0,0.0,0.0,0.0,0.0,0.0,0.0,0.0,0.0,0.0,0.0,0.0,0.0,0.0,0.0,0.0,0.0,0.0,0.0,0.0,0.0,0.0,0.0,0.0,0.0,0.0,0.0,0.0,0.0,0.0,0.0,0.0,0.0,0.0,0.0,0.0,0.0,0.0,0.0,0.0,0.0,0.0,0.0,0.0,0.0,0.0,0.0,0.0,0.0,0.0,0.0,0.0,0.0,0.0,0.0,0.0,0.0,0.0,0.0,0.0,0.0,0.0,0.0,0.0,0.0,0.0,0.0,0.0,0.0,0.0,0.0,0.0,0.0,0.0,0.0,0.0,0.0,0.0,0.0,0.0,0.0,0.0,0.0,0.0,0.0,0.0,0.0,0.0,0.0,0.0,0.0,0.0,0.0,0.0,0.0,0.0,0.0,0.0,0.0,0.0,0.0,0.0,0.0,0.0,0.0,0.0,0.0,0.0,0.0,0.0,0.0,0.0,0.0,0.0,0.0,0.0,0.0,0.0,0.0,0.0,0.0,0.0,0.0,0.0,0.0,0.0,0.0,0.0,0.0,0.0,0.0,0.0,0.0,0.0,0.0,0.0,0.0,0.0,0.0,0.0,0.0,0.0,0.0,0.0,0.0,0.0,0.0,0.0,0.0,0.0,0.0,0.0,0.0,0.0,0.0,0.0,0.0,0.0,0.0,0.0,0.0,0.0,0.0,0.0,0.0,0.0,0.0,0.0,0.0,0.0,0.0,0.0,0.0,0.0,0.0,0.0,0.0,0.0,0.0,0.0,0.0,0.0,0.0,0.0,0.0,0.0,0.0,0.0,0.0,0.0,0.0,0.0,0.0,0.0,0.0,0.0,0.0,0.0,0.0,0.0,0.0,0.0,0.0,0.0,0.0,0.0,0.0,0.0,0.0,0.0,0.0,0.0,0.0,0.0,0.0,0.0,0.0,0.0,0.0,0.0,0.0,0.0,0.0,0.0,0.0,0.0,0.0,0.0,0.0,0.0,0.0,0.0,0.0,0.0,0.0,0.0,0.0,0.0,0.0,0.0,0.0,0.0,0.0,0.0,0.0,0.0,0.0,0.0,0.0,0.0,0.0,0.0,0.0,0.0,0.0,0.0,0.0,0.0,0.0,0.0,0.0,0.0,0.0,0.0,0.0,0.0,0.0,0.0,0.0,0.0,0.0,0.0,0.0,0.0,0.0,0.0,0.0,0.0,0.0,0.0,0.0,0.0,0.0,0.0,0.0,0.0,0.0,0.0,0.0,0.0,0.0,0.0,0.0,0.0,0.0,0.0,0.0,0.0,0.0,0.0,0.0,0.0,0.0,0.0,0.0,0.0,0.0,0.0,0.0,0.0,0.0,0.0,0.0,0.0,0.0,0.0,0.0,0.0,0.0,0.0,0.0,0.0,0.0,0.0,0.0,0.0,0.0,0.0,0.0,0.0,0.0,0.0,0.0,0.0,0.0,0.0,0.0,0.0,0.0,0.0,0.0,0.0,0.0,0.0,0.0,0.0,0.0,0.0,0.0,0.0,0.0,0.0,0.0,0.0,0.0,0.0,0.0,0.0,0.0,0.0,0.0,0.0,0.0,0.0,0.0,0.0,0.0,0.0,0.0,0.0,0.0,0.0,0.0,0.0,0.0,0.0,0.0,0.0,0.0,0.0,0.0,0.0,0.0,0.0,0.0,0.0,0.0,0.0,0.0,0.0,0.0,0.0,0.0,0.0,0.0,0.0,0.0,0.0,0.0,0.0,0.0,0.0,0.0,0.0,0.0,0.0,0.0,0.0,0.0,0.0,0.0,0.0,0.0,0.0,0.0,0.0,0.0,0.0,0.0,0.0,0.0,0.0,0.0,0.0,0.0,0.0,0.0,0.0,0.0,0.0,0.0,0.0,0.0,0.0,0.0,0.0,0.0,0.0,0.0,0.0,0.0,0.0,0.0,0.0,0.0,0.0,0.0,0.0,0.0,0.0,0.0,0.0,0.0,0.0,0.0,0.0,0.0,0.0,0.0,0.0,0.0,0.0,0.0,0.0,0.0,0.0,0.0,0.0,0.0,0.0,0.0,0.0,0.0,0.0,0.0,0.0,0.0,0.0,0.0,0.0,0.0,0.0,0.0,0.0,0.0,0.0,0.0,0.0,0.0,0.0,0.0,0.0,0.0,0.0,0.0,0.0,0.0,0.0,0.0,0.0,0.0,0.0,0.0,0.0,0.0,0.0,0.0,0.0,0.0,0.0,0.0,0.0,0.0,0.0,0.0,0.0,0.0,0.0,0.0,0.0,0.0,0.0,0.0,0.0,0.0,0.0,0.0,0.0,0.0,0.0,0.0,0.0,0.0,0.0,0.0,0.0,0.0,0.0,0.0,0.0,0.0,0.0,0.0,0.0,0.0,0.0,0.0,0.0,0.0,0.0,0.0,0.0,0.0,0.0,0.0,0.0,0.0,0.0,0.0,0.0,0.0,0.0,0.0,0.0,0.0,0.0,0.0,0.0,0.0,0.0,0.0,0.0,0.0,0.0,0.0,0.0,0.0,0.0,0.0,0.0,0.0,0.0,0.0,0.0,0.0,0.0,0.0,0.0,0.0,0.0,0.0,0.0,0.0,0.0,0.0,0.0,0.0,0.0,0.0,0.0,0.0,0.0,0.0,0.0,0.0,0.0,0.0,0.0,0.0,0.0,0.0,0.0,0.0,0.0,0.0,0.0,0.0,0.0,0.0,0.0,0.0,0.0,0.0,0.0,0.0,0.0,0.0,0.0,0.0,0.0,0.0,0.0,0.0,0.0,0.0,0.0,0.0,0.0,0.0,0.0,0.0,0.0,0.0,0.0,0.0,0.0,0.0,0.0,0.0,0.0,0.0,0.0,0.0,0.0,0.0,0.0,0.0,0.0,0.0,0.0,0.0,0.0,0.0,0.0,0.0,0.0,0.0,0.0,0.0,0.0,0.0,0.0,0.0,0.0,0.0,0.0,0.0,0.0,0.0,0.0,0.0,0.0,0.0,0.0,0.0,0.0,0.0,0.0,0.0,0.0,0.0,0.0,0.0,0.0,0.0,0.0,0.0,0.0,0.0,0.0,0.0,0.0,0.0,0.0,0.0,0.0,0.0,0.0,0.0,0.0,0.0,0.0,0.0,0.0,0.0,0.0,0.0,0.0,0.0,0.0,0.0,0.0,0.0,0.0,0.0,0.0,0.0,0.0,0.0,0.0,0.0,0.0,0.0,0.0,0.0,0.0,0.0,0.0,0.0,0.0,0.0,0.0,0.0,0.0,0.0,0.0,0.0,0.0,0.0,0.0,0.0,0.0,0.0,0.0,0.0,0.0,0.0,0.0,0.0,0.0,0.0,0.0,0.0,0.0,0.0,0.0,0.0,0.0,0.0,0.0,0.0,0.0,0.0,0.0,0.0,0.0,0.0,0.0,0.0,0.0,0.0,0.0,0.0,0.0,0.0,0.0,0.0,0.0,0.0,0.0,0.0,0.0,0.0,0.0,0.0,0.0,0.0,0.0,0.0,0.0,0.0,0.0,0.0,0.0,0.0,0.0,0.0,0.0,0.0,0.0,0.0,0.0,0.0,0.0,0.0,0.0,0.0,0.0,0.0,0.0,0.0,0.0,0.0,0.0,0.0,0.0,0.0,0.0,0.0,0.0,0.0,0.0,0.0,0.0,0.0,0.0,0.0,0.0,0.0,0.0,0.0,0.0,0.0,0.0,0.0,0.0,0.0,0.0,0.0,0.0,0.0,0.0,0.0,0.0,0.0,0.0,0.0,0.0,0.0,0.0,0.0,0.0,0.0,0.0,0.0,0.0,0.0,0.0,0.0,0.0,0.0,0.0,0.0,0.0,0.0,0.0,0.0,0.0,0.0,0.0,0.0,0.0,0.0,0.0,0.0,0.0,0.0,0.0,0.0,0.0,0.0,0.0,0.0,0.0,0.0,0.0,0.0,0.0,0.0,0.0,0.0,0.0,0.0,0.0,0.0,0.0,0.0,0.0,0.0,0.0,0.0,0.0,0.0,0.0,0.0,0.0,0.0,0.0,0.0,0.0,0.0,0.0,0.0,0.0,0.0,0.0,0.0,0.0,0.0,0.0,0.0,0.0,0.0,0.0,0.0449,0.0449,0.0,0.0,0.0224,0.0673,0.0673,0.0449,0.0224,0.0224,0.0224,0.0224,0.0,0.0,0.0,0.0449,0.0449,0.0,0.0,0.0,0.0,0.0,0.0,0.0,0.0,0.0,0.0,0.0,0.0,0.0,0.0,0.0,0.0,0.0,0.0,0.0,0.0,0.0,0.0,0.0,0.0,0.0,0.0,0.0,0.0,0.0,0.0,0.0,0.0,0.0,0.0,0.0,0.0,0.0,0.0,0.0,0.0,0.0,0.0,0.0,0.0,0.0,0.0,0.0,0.0,0.0,0.0,0.0,0.0,0.0,0.0,0.0,0.0,0.0,0.0,0.0,0.0,0.0,0.0,0.0,0.0,0.0,0.0,0.0,0.0,0.0,0.0,0.0,0.0,0.0,0.0,0.0,0.0,0.0,0.0,0.0,0.0,0.0,0.0,0.0,0.0,0.0,0.0,0.0,0.0,0.0,0.0,0.0,0.0,0.0,0.0,0.0449,0.4264,0.3369,0.0,0.0,0.2467,0.5613,0.5613,0.4488,0.2917,0.2917,0.2917,0.2467,0.0673,0.0,0.0897,0.4488,0.2919,0.0,0.0,0.0,0.0,0.0,0.0,0.0,0.0,0.0,0.0,0.0,0.0,0.0,0.0,0.0,0.0,0.0,0.0,0.0,0.0,0.0,0.0,0.0,0.0,0.0,0.0,0.0,0.0,0.0,0.0,0.0,0.0,0.0,0.0,0.0,0.0,0.0,0.0,0.0,0.0,0.0,0.0,0.0,0.0,0.0,0.0,0.0,0.0,0.0,0.0,0.0,0.0,0.0,0.0,0.0,0.0,0.0,0.0,0.0,0.0,0.0,0.0,0.0,0.0,0.0,0.0,0.0,0.0,0.0,0.0,0.0,0.0,0.0,0.0,0.0,0.0,0.0,0.0,0.0,0.0,0.0,0.0,0.0,0.1113,0.1789,0.1796,0.2919,0.3369,0.3369,0.2245,0.1796,0.1796,0.1796,0.1796,0.2019,0.4488,0.4712,0.3365,0.2243,0.3365,0.5613,0.6737,0.6288,0.5387,0.5387,0.5387,0.5163,0.3815,0.2692,0.2243,0.4714,0.4488,0.3141,0.2019,0.1794,0.1796,0.1796,0.0898,0.0,0.0,0.0,0.0,0.0,0.0,0.0,0.0,0.0,0.0,0.0,0.0,0.0,0.0,0.0,0.0,0.0,0.0,0.0,0.0,0.0,0.0,0.0,0.0,0.0,0.0,0.0,0.0,0.0,0.0,0.0,0.0,0.0,0.0,0.0,0.0,0.0,0.0,0.0,0.0,0.0,0.0,0.0,0.0,0.0,0.0,0.0,0.0,0.0,0.0,0.0,0.0,0.0,0.0,0.0,0.0,0.0,0.0,0.0,0.0,0.0,0.0,0.0,0.0,0.0,0.0,0.0,0.0,0.0,0.0,0.0,0.0,0.0216,0.0649,0.066,0.0666,0.0666,0.2462,0.3369,0.3594,0.5838,0.6964,0.7188,0.5163,0.4264,0.4264,0.4264,0.4264,0.4264,0.4264,0.5387,0.6964,0.4938,0.4264,0.4488,0.6513,0.7188,0.7188,0.7188,0.7188,0.7188,0.7188,0.5838,0.4264,0.4264,0.5613,0.6737,0.4712,0.4264,0.4264,0.4264,0.2692,0.1122,0.0673,0.0224,0.0,0.0,0.0,0.0,0.0,0.0,0.0,0.0,0.0,0.0,0.0,0.0,0.0,0.0,0.0,0.0,0.0,0.0,0.0,0.0,0.0,0.0,0.0,0.0,0.0,0.0,0.0,0.0,0.0,0.0,0.0,0.0,0.0,0.0,0.0,0.0,0.0,0.0,0.0,0.0,0.0,0.0,0.0,0.0,0.0,0.0,0.0,0.0,0.0,0.0,0.0,0.0,0.0,0.0,0.0,0.0,0.0,0.0,0.0,0.0,0.0,0.0,0.0,0.0,0.0,0.0,0.0,0.0,0.0,0.1084,0.3059,0.3088,0.3116,0.3137,0.2467,0.2694,0.3594,0.4712,0.5838,0.7188,0.6964,0.6737,0.6737,0.6737,0.6737,0.6737,0.6732,0.6956,0.7188,0.6732,0.6732,0.6732,0.718,0.7183,0.7175,0.7175,0.7175,0.7175,0.7183,0.6956,0.6732,0.6732,0.6964,0.7188,0.6732,0.6737,0.6737,0.6737,0.6513,0.5613,0.3589,0.157,0.0,0.0,0.0,0.0,0.0,0.0,0.0,0.0,0.0,0.0,0.0,0.0,0.0,0.0,0.0,0.0,0.0,0.0,0.0,0.0,0.0,0.0,0.0,0.0,0.0,0.0,0.0,0.0,0.0,0.0,0.0,0.0,0.0,0.0,0.0,0.0,0.0,0.0,0.0,0.0,0.0,0.0,0.0,0.0,0.0,0.0,0.0,0.0,0.0,0.0,0.0,0.0,0.0,0.0,0.0,0.0,0.0,0.0,0.0,0.0,0.0,0.0,0.0,0.0,0.0,0.0,0.0,0.0,0.2599,0.4589,0.5515,0.5558,0.5371,0.4712,0.4264,0.4488,0.4938,0.5163,0.5387,0.5838,0.6513,0.6732,0.6732,0.6956,0.7183,0.7183,0.7183,0.7183,0.7183,0.7183,0.7175,0.7175,0.7175,0.7175,0.7175,0.7175,0.7175,0.7175,0.7175,0.7175,0.7175,0.7175,0.7183,0.7183,0.7183,0.7183,0.7183,0.7183,0.7183,0.6956,0.5831,0.4709,0.3141,0.0449,0.0,0.0,0.0,0.0,0.0,0.0,0.0,0.0,0.0,0.0,0.0,0.0,0.0,0.0,0.0,0.0,0.0,0.0,0.0,0.0,0.0,0.0,0.0,0.0,0.0,0.0,0.0,0.0,0.0,0.0,0.0,0.0,0.0,0.0,0.0,0.0,0.0,0.0,0.0,0.0,0.0,0.0,0.0,0.0,0.0,0.0,0.0,0.0,0.0,0.0,0.0,0.0,0.0,0.0,0.0,0.0,0.0,0.0,0.0,0.0,0.0,0.0,0.0,0.1066,0.1713,0.1728,0.4796,0.6379,0.6207,0.6704,0.6288,0.5387,0.5607,0.5831,0.5831,0.5607,0.5159,0.4938,0.5831,0.6281,0.6505,0.6951,0.7175,0.7175,0.7175,0.7175,0.7175,0.7175,0.7175,0.7175,0.7175,0.7175,0.7175,0.7175,0.7175,0.7175,0.7175,0.7175,0.7175,0.7175,0.7175,0.7175,0.7175,0.7175,0.7175,0.7175,0.7175,0.7175,0.7175,0.7183,0.6062,0.2467,0.1346,0.0673,0.0,0.0,0.0,0.0,0.0,0.0,0.0,0.0,0.0,0.0,0.0,0.0,0.0,0.0,0.0,0.0,0.0,0.0,0.0,0.0,0.0,0.0,0.0,0.0,0.0,0.0,0.0,0.0,0.0,0.0,0.0,0.0,0.0,0.0,0.0,0.0,0.0,0.0,0.0,0.0,0.0,0.0,0.0,0.0,0.0,0.0,0.0,0.0,0.0,0.0,0.0,0.0,0.0,0.0,0.0,0.0,0.0,0.0,0.0,0.0,0.0,0.4052,0.6644,0.6921,0.4792,0.3733,0.3766,0.536,0.5831,0.5383,0.5383,0.5383,0.5383,0.5383,0.5383,0.5383,0.6057,0.6732,0.7175,0.7175,0.7175,0.7175,0.7175,0.7175,0.7175,0.7175,0.7175,0.7175,0.7175,0.7175,0.7175,0.7175,0.7175,0.7175,0.7175,0.7175,0.7175,0.7175,0.7175,0.7175,0.7175,0.7175,0.7175,0.7175,0.7175,0.7175,0.7183,0.7183,0.718,0.6964,0.4938,0.2692,0.0449,0.0,0.0,0.0,0.0,0.0,0.0,0.0,0.0,0.0,0.0,0.0,0.0,0.0,0.0,0.0,0.0,0.0,0.0,0.0,0.0,0.0,0.0,0.0,0.0,0.0,0.0,0.0,0.0,0.0,0.0,0.0,0.0,0.0,0.0,0.0,0.0,0.0,0.0,0.0,0.0,0.0,0.0,0.0,0.0,0.0,0.0,0.0,0.0,0.0,0.0,0.0,0.0,0.0,0.0,0.0,0.0,0.0,0.2308,0.377,0.4261,0.4642,0.5519,0.697,0.6372,0.5979,0.5809,0.6493,0.6724,0.65,0.65,0.65,0.65,0.65,0.65,0.65,0.6724,0.6724,0.6732,0.6951,0.7175,0.7175,0.7175,0.7175,0.7175,0.7175,0.7175,0.7175,0.7175,0.7175,0.7175,0.7175,0.7175,0.7175,0.7175,0.7175,0.7175,0.6732,0.6732,0.6505,0.6057,0.6057,0.6057,0.6057,0.6057,0.6057,0.6057,0.6732,0.7183,0.7183,0.6505,0.5607,0.4714,0.3365,0.1794,0.0224,0.0,0.0,0.0,0.0,0.0,0.0,0.0,0.0,0.0,0.0,0.0,0.0,0.0,0.0,0.0,0.0,0.0,0.0,0.0,0.0,0.0,0.0,0.0,0.0,0.0,0.0,0.0,0.0,0.0,0.0,0.0,0.0,0.0,0.0,0.0,0.0,0.0,0.0,0.0,0.0,0.0,0.0,0.0,0.0,0.0,0.0,0.0,0.0,0.0,0.0,0.0,0.0,0.0639,0.2132,0.4616,0.6282,0.661,0.5497,0.5332,0.7027,0.709,0.7139,0.7183,0.7175,0.7175,0.7175,0.7175,0.7175,0.7175,0.7175,0.7175,0.7175,0.7175,0.6951,0.6732,0.6951,0.7175,0.7175,0.7175,0.7175,0.6948,0.6948,0.6948,0.6948,0.6948,0.6951,0.7175,0.7175,0.7175,0.7175,0.6951,0.6948,0.6724,0.6057,0.6057,0.5831,0.5607,0.5383,0.5383,0.5383,0.5383,0.5383,0.5383,0.6057,0.65,0.6508,0.6508,0.6732,0.6737,0.5613,0.4039,0.2019,0.0673,0.0,0.0,0.0,0.0,0.0,0.0,0.0,0.0,0.0,0.0,0.0,0.0,0.0,0.0,0.0,0.0,0.0,0.0,0.0,0.0,0.0,0.0,0.0,0.0,0.0,0.0,0.0,0.0,0.0,0.0,0.0,0.0,0.0,0.0,0.0,0.0,0.0,0.0,0.0,0.0,0.0,0.0,0.0,0.0,0.0,0.0,0.0,0.0,0.0,0.0213,0.0213,0.1919,0.6402,0.6826,0.661,0.6397,0.6666,0.6967,0.709,0.7147,0.7175,0.7175,0.7175,0.7175,0.7175,0.7175,0.7175,0.7175,0.7175,0.7175,0.7175,0.7175,0.7175,0.7175,0.7175,0.7175,0.7175,0.7175,0.6948,0.6281,0.6281,0.6281,0.6281,0.6281,0.6732,0.7175,0.7175,0.7175,0.7175,0.6505,0.6281,0.6281,0.5607,0.5383,0.5383,0.5383,0.5383,0.5383,0.5383,0.5383,0.5383,0.5383,0.5383,0.5383,0.5383,0.5383,0.5607,0.5838,0.6732,0.6732,0.5618,0.2467,0.0,0.0,0.0,0.0,0.0,0.0,0.0,0.0,0.0,0.0,0.0,0.0,0.0,0.0,0.0,0.0,0.0,0.0,0.0,0.0,0.0,0.0,0.0,0.0,0.0,0.0,0.0,0.0,0.0,0.0,0.0,0.0,0.0,0.0,0.0,0.0,0.0,0.0,0.0,0.0,0.0,0.0,0.0,0.0,0.0,0.0,0.0,0.0,0.1279,0.4693,0.4906,0.4693,0.4476,0.5655,0.6687,0.6605,0.6918,0.7027,0.7147,0.7166,0.7175,0.7175,0.7175,0.7175,0.7175,0.7175,0.7175,0.7175,0.7175,0.7175,0.7175,0.7175,0.7175,0.7175,0.7175,0.7175,0.7175,0.7175,0.7175,0.6951,0.6951,0.6951,0.6951,0.6951,0.6951,0.7175,0.7175,0.7175,0.7175,0.6951,0.6732,0.6281,0.5607,0.5157,0.4712,0.4264,0.4039,0.4039,0.4039,0.4039,0.4039,0.4039,0.4039,0.4264,0.5159,0.5383,0.5383,0.5607,0.5831,0.5831,0.5838,0.4488,0.2692,0.0224,0.0,0.0,0.0,0.0,0.0,0.0,0.0,0.0,0.0,0.0,0.0,0.0,0.0,0.0,0.0,0.0,0.0,0.0,0.0,0.0,0.0,0.0,0.0,0.0,0.0,0.0,0.0,0.0,0.0,0.0,0.0,0.0,0.0,0.0,0.0,0.0,0.0588,0.158,0.2592,0.1198,0.0,0.0,0.0,0.0625,0.2524,0.2757,0.3411,0.5119,0.6187,0.6187,0.4902,0.5883,0.6733,0.6888,0.6987,0.7076,0.7175,0.7175,0.7175,0.7175,0.7175,0.7175,0.7175,0.7175,0.7175,0.7175,0.7175,0.7175,0.7175,0.7175,0.7175,0.7175,0.7175,0.7175,0.7175,0.7175,0.6951,0.6724,0.6724,0.6724,0.6724,0.6724,0.6951,0.7175,0.7175,0.7175,0.7175,0.6948,0.6508,0.6281,0.5607,0.4933,0.4488,0.4039,0.3814,0.3589,0.3589,0.3589,0.3589,0.3589,0.3589,0.3814,0.4485,0.4709,0.4709,0.4709,0.4933,0.4938,0.4938,0.4938,0.4039,0.1796,0.1122,0.0898,0.1347,0.0673,0.0,0.0,0.0,0.0,0.0,0.0,0.0,0.0,0.0,0.0,0.0,0.0,0.0,0.0,0.0,0.0,0.0,0.0,0.0,0.0,0.0,0.0,0.0,0.0,0.0,0.0,0.0,0.0,0.0,0.019,0.0589,0.1562,0.2324,0.3671,0.5851,0.3125,0.0592,0.0203,0.0412,0.2082,0.5874,0.6573,0.5974,0.4048,0.5543,0.6826,0.6823,0.6831,0.6883,0.6992,0.7055,0.7117,0.7175,0.7175,0.7175,0.7175,0.7175,0.7175,0.7175,0.7175,0.7175,0.7175,0.7175,0.7175,0.7175,0.7175,0.7175,0.7175,0.7175,0.7175,0.7175,0.7175,0.6948,0.6505,0.6505,0.6505,0.6505,0.6505,0.6724,0.7175,0.7175,0.7175,0.7175,0.6505,0.6281,0.6281,0.5607,0.4933,0.4488,0.4488,0.4039,0.3589,0.3589,0.3589,0.3589,0.3589,0.3589,0.3589,0.3589,0.3589,0.3589,0.3589,0.4039,0.4264,0.3589,0.4264,0.4488,0.3589,0.2694,0.247,0.3589,0.2021,0.0673,0.0449,0.0449,0.0449,0.0449,0.0224,0.0,0.0,0.0,0.0,0.0,0.0,0.0,0.0,0.0,0.0,0.0,0.0,0.0,0.0,0.0,0.0,0.0,0.0,0.0,0.0,0.0,0.0,0.0,0.1071,0.4377,1.1605,0.73,0.3175,0.4295,0.471,0.4034,0.1394,0.3681,0.5181,0.412,0.5678,0.6613,0.6184,0.661,0.6823,0.682,0.6864,0.6924,0.6992,0.7055,0.7117,0.7175,0.7175,0.7175,0.7175,0.7175,0.7175,0.7175,0.7175,0.7175,0.7175,0.7175,0.7175,0.7175,0.7175,0.7175,0.7175,0.7175,0.7175,0.7175,0.7175,0.7175,0.6951,0.6951,0.6951,0.6951,0.6951,0.7175,0.7175,0.7175,0.7175,0.7175,0.6951,0.6732,0.6281,0.5607,0.5383,0.5157,0.4712,0.4488,0.4264,0.3814,0.3589,0.3589,0.3589,0.3589,0.3589,0.3589,0.3589,0.3589,0.3589,0.3589,0.3814,0.3589,0.3814,0.3814,0.3589,0.3365,0.3365,0.3594,0.4938,0.4938,0.3141,0.2917,0.2917,0.2917,0.1121,0.0,0.0,0.0,0.0,0.0,0.0,0.0,0.0,0.0,0.0,0.0,0.0,0.0,0.0,0.0,0.0,0.2201,0.0,0.0,0.0,0.3207,0.3161,0.3079,0.4044,0.6281,1.104,0.8898,0.6731,0.7809,0.6577,0.5184,0.4742,0.5365,0.5561,0.5215,0.6135,0.6823,0.682,0.682,0.682,0.6818,0.6902,0.6967,0.7,0.7085,0.7147,0.7175,0.7175,0.7175,0.7175,0.7175,0.7175,0.7175,0.7175,0.7175,0.7175,0.7175,0.7175,0.7175,0.7175,0.7175,0.7175,0.7175,0.7175,0.7175,0.7175,0.7175,0.7175,0.7175,0.7175,0.7175,0.7175,0.7175,0.7175,0.7175,0.7175,0.7175,0.7175,0.6951,0.6732,0.6281,0.6057,0.5831,0.5383,0.4938,0.4488,0.4039,0.3814,0.3589,0.3589,0.3589,0.3589,0.3589,0.3589,0.3589,0.3589,0.3589,0.3589,0.3589,0.3589,0.3589,0.3589,0.3589,0.3814,0.4039,0.4938,0.5387,0.5387,0.5387,0.5387,0.5387,0.4264,0.3141,0.1794,0.1794,0.1796,0.1796,0.0673,0.0,0.0,0.0,0.0,0.0,0.0,0.0,0.0,0.0,0.0,0.0,0.0,0.5346,0.0,0.0,0.0,0.7604,0.749,0.7633,0.8926,0.9495,1.0239,1.1575,0.8289,0.6053,0.7915,0.6678,0.563,0.6436,0.6489,0.6507,0.6714,0.6747,0.6779,0.6815,0.6929,0.7,0.7,0.7112,0.7175,0.7175,0.7175,0.7175,0.7175,0.7175,0.7175,0.7175,0.7175,0.7175,0.7175,0.7175,0.7175,0.7175,0.7175,0.7175,0.7175,0.7175,0.7175,0.7175,0.7175,0.7175,0.7175,0.7175,0.7175,0.7175,0.7175,0.7175,0.7175,0.7175,0.7175,0.7175,0.7175,0.7175,0.7175,0.7175,0.6948,0.6505,0.6281,0.5607,0.4714,0.4488,0.4039,0.3814,0.3589,0.3589,0.3589,0.3589,0.3589,0.3589,0.3589,0.3589,0.3589,0.3589,0.3589,0.3589,0.3589,0.3589,0.3814,0.4264,0.4039,0.4488,0.6505,0.6964,0.6964,0.6964,0.7188,0.6288,0.4264,0.4264,0.4264,0.4264,0.2467,0.1121,0.0673,0.0224,0.0,0.0,0.0,0.0,0.0,0.0,0.0,0.0,0.8121,0.0,0.0,0.0,1.1838,1.2257,0.0,1.0044,1.2997,0.0,0.0,1.1189,1.0024,0.9121,0.973,0.8521,0.6942,0.5713,0.5658,0.5942,0.6341,0.6488,0.6649,0.6807,0.6929,0.7,0.7,0.7112,0.7175,0.7175,0.7175,0.7175,0.7175,0.7175,0.7175,0.7175,0.7175,0.7175,0.7175,0.7175,0.7175,0.7175,0.7175,0.7175,0.7175,0.7175,0.7175,0.7175,0.7175,0.7175,0.7175,0.7175,0.7175,0.7175,0.7175,0.7175,0.7175,0.7175,0.7175,0.7175,0.7175,0.7175,0.7175,0.7175,0.7175,0.6951,0.6505,0.6281,0.5831,0.4712,0.4488,0.4264,0.3814,0.3589,0.3589,0.3589,0.3589,0.3589,0.3589,0.3589,0.3589,0.3589,0.3589,0.3589,0.3589,0.3589,0.3589,0.3589,0.4039,0.4488,0.4714,0.5831,0.6505,0.6505,0.6956,0.718,0.6732,0.6737,0.6737,0.6737,0.6513,0.5387,0.3141,0.1121,0.0,0.0,0.0,0.0,0.0,0.0,0.0,0.0,0.0,0.0,0.0,0.0,1.2782,0.0,0.0,0.0,0.0,0.0,0.0,0.0,1.1665,1.0867,1.1395,0.8974,0.7269,0.7459,0.6586,0.6072,0.6373,0.6357,0.6431,0.6646,0.6774,0.6842,0.6842,0.7055,0.7175,0.7175,0.7175,0.7175,0.7175,0.7175,0.7175,0.7175,0.7175,0.7175,0.7175,0.7175,0.7175,0.7175,0.7175,0.7175,0.7175,0.7175,0.7175,0.7175,0.7175,0.7175,0.7175,0.7175,0.7175,0.7175,0.7175,0.7175,0.7175,0.7175,0.7175,0.7175,0.7175,0.7175,0.7175,0.7175,0.7175,0.7175,0.6948,0.6505,0.6281,0.5607,0.4938,0.4488,0.4264,0.3815,0.3589,0.3589,0.3589,0.3589,0.3589,0.3589,0.3589,0.3589,0.3589,0.3589,0.3589,0.3589,0.3589,0.3589,0.3815,0.4039,0.4488,0.4938,0.5607,0.6281,0.6956,0.7175,0.7175,0.7183,0.7183,0.7183,0.7183,0.6732,0.5607,0.4712,0.3365,0.2019,0.0673,0.0,1.2618,0.0,0.0,0.0,0.0,0.0,0.0,0.0,0.0,0.0,0.0,0.0,0.0,0.0,0.0,1.3732,0.0,1.2111,1.2783,1.0159,0.8353,0.8727,0.7262,0.6161,0.608,0.6226,0.6262,0.6439,0.6621,0.6728,0.6728,0.7014,0.7175,0.7175,0.7175,0.7175,0.7175,0.7175,0.7175,0.7175,0.7175,0.7175,0.7175,0.7175,0.7175,0.7175,0.7175,0.7175,0.7175,0.7175,0.7175,0.7175,0.7175,0.7175,0.7175,0.7175,0.7175,0.7175,0.7175,0.7175,0.7175,0.7175,0.7175,0.7175,0.7175,0.7175,0.7175,0.7175,0.7175,0.7175,0.7175,0.6948,0.6505,0.6281,0.5607,0.4938,0.4488,0.4264,0.3814,0.3589,0.3589,0.3589,0.3589,0.3589,0.3589,0.3589,0.3589,0.3589,0.3589,0.3589,0.3589,0.3589,0.3589,0.3814,0.4264,0.4488,0.5159,0.6505,0.6951,0.7175,0.7175,0.7175,0.7175,0.7175,0.7175,0.7183,0.7183,0.7183,0.6288,0.4488,0.1346,0.0,0.0,0.0,0.0,1.3763,0.0,0.0,0.0,0.0,1.3003,0.0,0.0,0.0,0.0,0.0,0.0,0.0,0.0,0.0,0.0,1.2552,1.0657,0.8234,0.6769,0.5726,0.5122,0.5866,0.6191,0.6199,0.6529,0.6728,0.6728,0.7014,0.7175,0.7175,0.7175,0.7175,0.7175,0.7175,0.7175,0.7175,0.7175,0.7175,0.7175,0.7175,0.7175,0.7175,0.7175,0.7175,0.7175,0.7175,0.7175,0.7175,0.7175,0.7175,0.7175,0.7175,0.7175,0.7175,0.7175,0.7175,0.7175,0.7175,0.7175,0.7175,0.7175,0.7175,0.7175,0.7175,0.7175,0.7175,0.7175,0.7175,0.6951,0.6505,0.6281,0.5831,0.4712,0.4488,0.4264,0.3814,0.3589,0.3589,0.3589,0.3589,0.3589,0.3589,0.3589,0.3589,0.3589,0.3589,0.3589,0.3589,0.3589,0.3589,0.3589,0.4709,0.5831,0.7175,0.7175,0.7175,0.7175,0.7175,0.7175,0.7175,0.7175,0.7175,0.7175,0.7183,0.7183,0.6956,0.2243,0.0,1.5025,0.0,1.5059,1.4862,0.0,0.0,0.0,0.0,0.0,0.0,0.0,0.0,0.0,0.0,0.0,0.0,0.0,1.36,0.0,1.2687,1.1031,0.8935,0.6536,0.5172,0.5406,0.5771,0.5839,0.6,0.6234,0.6371,0.6371,0.6769,0.7,0.7,0.7112,0.7175,0.7175,0.7175,0.7175,0.7175,0.7175,0.7175,0.7175,0.7175,0.7175,0.7175,0.7175,0.7175,0.7175,0.7175,0.7175,0.7175,0.7175,0.7175,0.7175,0.7175,0.7175,0.7175,0.7175,0.7175,0.7175,0.7175,0.7175,0.7175,0.7175,0.7175,0.7175,0.7175,0.7175,0.7175,0.7175,0.7175,0.7175,0.6951,0.6508,0.6057,0.5383,0.4714,0.4264,0.3814,0.3589,0.3589,0.3589,0.3589,0.3589,0.3589,0.3589,0.3589,0.3589,0.3589,0.3589,0.3589,0.3589,0.3589,0.3589,0.4709,0.5607,0.6057,0.6724,0.7175,0.7175,0.7175,0.7175,0.7175,0.7175,0.7175,0.7175,0.7175,0.7175,0.7175,0.5607,0.3815,1.5635,1.573,1.5703,1.5594,1.535,0.0,1.4936,0.0,0.0,0.0,0.0,0.0,0.0,0.0,0.0,0.0,0.0,0.0,0.0,1.2637,1.1204,1.0007,0.732,0.5797,0.631,0.5794,0.5493,0.5785,0.6019,0.6166,0.6188,0.6646,0.6908,0.6908,0.7085,0.7175,0.7175,0.7175,0.7175,0.7175,0.7175,0.7175,0.7175,0.7175,0.7175,0.7175,0.7175,0.7175,0.7175,0.7175,0.7175,0.7175,0.7175,0.7175,0.7175,0.7175,0.7175,0.7175,0.7175,0.7175,0.7175,0.7175,0.7175,0.7175,0.7175,0.7175,0.7188,0.7251,0.7224,0.7188,0.7251,0.7224,0.7175,0.7175,0.6948,0.6505,0.5831,0.5159,0.4712,0.4039,0.3814,0.3589,0.3589,0.3589,0.3589,0.3589,0.3589,0.3589,0.3589,0.3589,0.3589,0.3589,0.3589,0.3589,0.3815,0.4712,0.5159,0.5607,0.6505,0.6951,0.7175,0.7175,0.7175,0.7175,0.7175,0.7175,0.7175,0.7175,0.7175,0.7175,0.7175,0.6281]}]]